Wetterdaten: Donnerstag, 18.04.2013
Datum Zeit Temp. Aussen +5cm Feuchte Auss Luftdruck Regen Sonnenschein Regendauer UV Solar Windben
18.04.2013 00:00 18,7 C 16,2 C 65 % 1012,5 hPa 0,0 l/m 0 min 0 min 0,0 UV-I 0 W/m 18,0 km/h (3 Bft)
18.04.2013 00:02 18,7 C 16,2 C 65 % 1012,6 hPa 0,0 l/m 0 min 0 min 0,0 UV-I 0 W/m 7,7 km/h (2 Bft)
18.04.2013 00:06 18,6 C 16,2 C 65 % 1012,4 hPa 0,0 l/m 0 min 0 min 0,0 UV-I 0 W/m 15,4 km/h (3 Bft)
18.04.2013 00:08 18,6 C 15,7 C 65 % 1012,4 hPa 0,0 l/m 0 min 0 min 0,0 UV-I 0 W/m 15,4 km/h (3 Bft)
18.04.2013 00:10 18,6 C 15,7 C 65 % 1012,4 hPa 0,0 l/m 0 min 0 min 0,0 UV-I 0 W/m 18,0 km/h (3 Bft)
18.04.2013 00:12 18,6 C 15,7 C 65 % 1012,4 hPa 0,0 l/m 0 min 0 min 0,0 UV-I 0 W/m 18,0 km/h (3 Bft)
18.04.2013 00:14 18,6 C 16,2 C 65 % 1012,4 hPa 0,0 l/m 0 min 0 min 0,0 UV-I 0 W/m 15,4 km/h (3 Bft)
18.04.2013 00:16 18,6 C 16,2 C 65 % 1012,4 hPa 0,0 l/m 0 min 0 min 0,0 UV-I 0 W/m 15,4 km/h (3 Bft)
18.04.2013 00:18 18,6 C 15,7 C 65 % 1012,4 hPa 0,0 l/m 0 min 0 min 0,0 UV-I 0 W/m 12,9 km/h (3 Bft)
18.04.2013 00:20 18,6 C 15,7 C 65 % 1012,4 hPa 0,0 l/m 0 min 0 min 0,0 UV-I 0 W/m 12,9 km/h (3 Bft)
18.04.2013 00:22 18,5 C 15,7 C 65 % 1012,4 hPa 0,0 l/m 0 min 0 min 0,0 UV-I 0 W/m 20,6 km/h (4 Bft)
18.04.2013 00:24 18,5 C 16,2 C 65 % 1012,3 hPa 0,0 l/m 0 min 0 min 0,0 UV-I 0 W/m 20,6 km/h (4 Bft)
18.04.2013 00:26 18,5 C 16,2 C 65 % 1012,3 hPa 0,0 l/m 0 min 0 min 0,0 UV-I 0 W/m 12,9 km/h (3 Bft)
18.04.2013 00:28 18,5 C 16,2 C 65 % 1012,3 hPa 0,0 l/m 0 min 0 min 0,0 UV-I 0 W/m 15,4 km/h (3 Bft)
18.04.2013 00:30 18,5 C 15,7 C 65 % 1012,3 hPa 0,0 l/m 0 min 0 min 0,0 UV-I 0 W/m 23,2 km/h (4 Bft)
18.04.2013 00:32 18,4 C 15,7 C 65 % 1012,3 hPa 0,0 l/m 0 min 0 min 0,0 UV-I 0 W/m 18,0 km/h (3 Bft)
18.04.2013 00:34 18,4 C 15,7 C 65 % 1012,3 hPa 0,0 l/m 0 min 0 min 0,0 UV-I 0 W/m 15,4 km/h (3 Bft)
18.04.2013 00:36 18,4 C 15,7 C 65 % 1012,3 hPa 0,0 l/m 0 min 0 min 0,0 UV-I 0 W/m 28,3 km/h (4 Bft)
18.04.2013 00:38 18,4 C 16,2 C 65 % 1012,2 hPa 0,0 l/m 0 min 0 min 0,0 UV-I 0 W/m 20,6 km/h (4 Bft)
18.04.2013 00:40 18,4 C 15,7 C 65 % 1012,3 hPa 0,0 l/m 0 min 0 min 0,0 UV-I 0 W/m 18,0 km/h (3 Bft)
18.04.2013 00:42 18,4 C 15,7 C 65 % 1012,2 hPa 0,0 l/m 0 min 0 min 0,0 UV-I 0 W/m 18,0 km/h (3 Bft)
18.04.2013 00:44 18,4 C 15,7 C 65 % 1012,2 hPa 0,0 l/m 0 min 0 min 0,0 UV-I 0 W/m 20,6 km/h (4 Bft)
18.04.2013 00:46 18,4 C 15,7 C 65 % 1012,2 hPa 0,0 l/m 0 min 0 min 0,0 UV-I 0 W/m 18,0 km/h (3 Bft)
18.04.2013 00:48 18,3 C 15,7 C 66 % 1012,2 hPa 0,0 l/m 0 min 0 min 0,0 UV-I 0 W/m 18,0 km/h (3 Bft)
18.04.2013 00:50 18,3 C 15,7 C 66 % 1012,2 hPa 0,0 l/m 0 min 0 min 0,0 UV-I 0 W/m 18,0 km/h (3 Bft)
18.04.2013 00:52 18,3 C 15,7 C 65 % 1012,1 hPa 0,0 l/m 0 min 0 min 0,0 UV-I 0 W/m 20,6 km/h (4 Bft)
18.04.2013 00:54 18,3 C 15,7 C 66 % 1012,1 hPa 0,0 l/m 0 min 0 min 0,0 UV-I 0 W/m 15,4 km/h (3 Bft)
18.04.2013 00:56 18,3 C 15,7 C 66 % 1012,0 hPa 0,0 l/m 0 min 0 min 0,0 UV-I 0 W/m 12,9 km/h (3 Bft)
18.04.2013 00:58 18,3 C 15,7 C 66 % 1012,0 hPa 0,0 l/m 0 min 0 min 0,0 UV-I 0 W/m 15,4 km/h (3 Bft)
18.04.2013 01:00 18,2 C 15,7 C 66 % 1011,9 hPa 0,0 l/m 0 min 0 min 0,0 UV-I 0 W/m 15,4 km/h (3 Bft)
18.04.2013 01:02 18,2 C 15,7 C 66 % 1012,0 hPa 0,0 l/m 0 min 0 min 0,0 UV-I 0 W/m 18,0 km/h (3 Bft)
18.04.2013 01:04 18,2 C 15,7 C 66 % 1012,0 hPa 0,0 l/m 0 min 0 min 0,0 UV-I 0 W/m 7,7 km/h (2 Bft)
18.04.2013 01:06 18,2 C 15,7 C 66 % 1012,0 hPa 0,0 l/m 0 min 0 min 0,0 UV-I 0 W/m 12,9 km/h (3 Bft)
18.04.2013 01:08 18,2 C 15,7 C 66 % 1011,9 hPa 0,0 l/m 0 min 0 min 0,0 UV-I 0 W/m 18,0 km/h (3 Bft)
18.04.2013 01:10 18,2 C 15,7 C 66 % 1011,9 hPa 0,0 l/m 0 min 0 min 0,0 UV-I 0 W/m 15,4 km/h (3 Bft)
18.04.2013 01:12 18,2 C 15,7 C 66 % 1011,9 hPa 0,0 l/m 0 min 0 min 0,0 UV-I 0 W/m 20,6 km/h (4 Bft)
18.04.2013 01:14 18,2 C 15,7 C 66 % 1011,9 hPa 0,0 l/m 0 min 0 min 0,0 UV-I 0 W/m 20,6 km/h (4 Bft)
18.04.2013 01:16 18,1 C 15,7 C 66 % 1011,9 hPa 0,0 l/m 0 min 0 min 0,0 UV-I 0 W/m 20,6 km/h (4 Bft)
18.04.2013 01:18 18,1 C 15,7 C 66 % 1011,9 hPa 0,0 l/m 0 min 0 min 0,0 UV-I 0 W/m 23,2 km/h (4 Bft)
18.04.2013 01:20 18,1 C 15,7 C 66 % 1011,9 hPa 0,0 l/m 0 min 0 min 0,0 UV-I 0 W/m 12,9 km/h (3 Bft)
18.04.2013 01:22 18,1 C 15,7 C 66 % 1011,9 hPa 0,0 l/m 0 min 0 min 0,0 UV-I 0 W/m 7,7 km/h (2 Bft)
18.04.2013 01:24 18,1 C 15,7 C 66 % 1011,9 hPa 0,0 l/m 0 min 0 min 0,0 UV-I 0 W/m 10,3 km/h (2 Bft)
18.04.2013 01:26 18,1 C 15,7 C 66 % 1011,9 hPa 0,0 l/m 0 min 0 min 0,0 UV-I 0 W/m 15,4 km/h (3 Bft)
18.04.2013 01:28 18,1 C 15,7 C 66 % 1011,9 hPa 0,0 l/m 0 min 0 min 0,0 UV-I 0 W/m 7,7 km/h (2 Bft)
18.04.2013 01:30 18,1 C 15,7 C 66 % 1011,9 hPa 0,0 l/m 0 min 0 min 0,0 UV-I 0 W/m 18,0 km/h (3 Bft)
18.04.2013 01:32 18,0 C 15,7 C 66 % 1011,8 hPa 0,0 l/m 0 min 0 min 0,0 UV-I 0 W/m 12,9 km/h (3 Bft)
18.04.2013 01:34 18,0 C 15,7 C 66 % 1011,8 hPa 0,0 l/m 0 min 0 min 0,0 UV-I 0 W/m 15,4 km/h (3 Bft)
18.04.2013 01:36 17,9 C 15,7 C 66 % 1011,8 hPa 0,0 l/m 0 min 0 min 0,0 UV-I 0 W/m 12,9 km/h (3 Bft)
18.04.2013 01:38 17,9 C 15,7 C 66 % 1011,8 hPa 0,0 l/m 0 min 0 min 0,0 UV-I 0 W/m 18,0 km/h (3 Bft)
18.04.2013 01:40 17,9 C 15,7 C 66 % 1011,8 hPa 0,0 l/m 0 min 0 min 0,0 UV-I 0 W/m 20,6 km/h (4 Bft)
18.04.2013 01:42 17,9 C 15,7 C 66 % 1011,8 hPa 0,0 l/m 0 min 0 min 0,0 UV-I 0 W/m 15,4 km/h (3 Bft)
18.04.2013 01:44 17,9 C 15,7 C 67 % 1011,7 hPa 0,0 l/m 0 min 0 min 0,0 UV-I 0 W/m 15,4 km/h (3 Bft)
18.04.2013 01:46 17,9 C 15,7 C 67 % 1011,7 hPa 0,0 l/m 0 min 0 min 0,0 UV-I 0 W/m 15,4 km/h (3 Bft)
18.04.2013 01:48 17,9 C 15,1 C 67 % 1011,7 hPa 0,0 l/m 0 min 0 min 0,0 UV-I 0 W/m 12,9 km/h (3 Bft)
18.04.2013 01:50 17,9 C 15,1 C 67 % 1011,6 hPa 0,0 l/m 0 min 0 min 0,0 UV-I 0 W/m 10,3 km/h (2 Bft)
18.04.2013 01:52 17,8 C 15,1 C 67 % 1011,6 hPa 0,0 l/m 0 min 0 min 0,0 UV-I 0 W/m 12,9 km/h (3 Bft)
18.04.2013 01:54 17,8 C 15,1 C 67 % 1011,6 hPa 0,0 l/m 0 min 0 min 0,0 UV-I 0 W/m 12,9 km/h (3 Bft)
18.04.2013 01:56 17,8 C 15,1 C 67 % 1011,5 hPa 0,0 l/m 0 min 0 min 0,0 UV-I 0 W/m 10,3 km/h (2 Bft)
18.04.2013 01:58 17,8 C 15,1 C 67 % 1011,5 hPa 0,0 l/m 0 min 0 min 0,0 UV-I 0 W/m 12,9 km/h (3 Bft)
18.04.2013 02:00 17,7 C 14,6 C 67 % 1011,4 hPa 0,0 l/m 0 min 0 min 0,0 UV-I 0 W/m 10,3 km/h (2 Bft)
18.04.2013 02:02 17,7 C 14,6 C 67 % 1011,4 hPa 0,0 l/m 0 min 0 min 0,0 UV-I 0 W/m 12,9 km/h (3 Bft)
18.04.2013 02:04 17,6 C 14,6 C 68 % 1011,3 hPa 0,0 l/m 0 min 0 min 0,0 UV-I 0 W/m 12,9 km/h (3 Bft)
18.04.2013 02:06 17,6 C 14,6 C 68 % 1011,3 hPa 0,0 l/m 0 min 0 min 0,0 UV-I 0 W/m 12,9 km/h (3 Bft)
18.04.2013 02:08 17,5 C 14,6 C 68 % 1011,4 hPa 0,0 l/m 0 min 0 min 0,0 UV-I 0 W/m 10,3 km/h (2 Bft)
18.04.2013 02:10 17,5 C 14,6 C 68 % 1011,4 hPa 0,0 l/m 0 min 0 min 0,0 UV-I 0 W/m 10,3 km/h (2 Bft)
18.04.2013 02:12 17,4 C 14,6 C 68 % 1011,2 hPa 0,0 l/m 0 min 0 min 0,0 UV-I 0 W/m 10,3 km/h (2 Bft)
18.04.2013 02:14 17,4 C 14,6 C 69 % 1011,2 hPa 0,0 l/m 0 min 0 min 0,0 UV-I 0 W/m 7,7 km/h (2 Bft)
18.04.2013 02:16 17,3 C 14,6 C 69 % 1011,1 hPa 0,0 l/m 0 min 0 min 0,0 UV-I 0 W/m 7,7 km/h (2 Bft)
18.04.2013 02:18 17,3 C 14,6 C 69 % 1011,2 hPa 0,0 l/m 0 min 0 min 0,0 UV-I 0 W/m 12,9 km/h (3 Bft)
18.04.2013 02:20 17,2 C 14,6 C 69 % 1011,2 hPa 0,0 l/m 0 min 0 min 0,0 UV-I 0 W/m 10,3 km/h (2 Bft)
18.04.2013 02:22 17,2 C 14,0 C 69 % 1011,2 hPa 0,0 l/m 0 min 0 min 0,0 UV-I 0 W/m 7,7 km/h (2 Bft)
18.04.2013 02:24 17,1 C 14,0 C 69 % 1011,1 hPa 0,0 l/m 0 min 0 min 0,0 UV-I 0 W/m 12,9 km/h (3 Bft)
18.04.2013 02:26 17,1 C 14,0 C 70 % 1011,1 hPa 0,0 l/m 0 min 0 min 0,0 UV-I 0 W/m 7,7 km/h (2 Bft)
18.04.2013 02:28 17,0 C 14,0 C 70 % 1011,0 hPa 0,0 l/m 0 min 0 min 0,0 UV-I 0 W/m 10,3 km/h (2 Bft)
18.04.2013 02:30 17,0 C 14,0 C 70 % 1011,0 hPa 0,0 l/m 0 min 0 min 0,0 UV-I 0 W/m 12,9 km/h (3 Bft)
18.04.2013 02:32 16,9 C 14,0 C 70 % 1010,9 hPa 0,0 l/m 0 min 0 min 0,0 UV-I 0 W/m 10,3 km/h (2 Bft)
18.04.2013 02:34 16,9 C 14,0 C 70 % 1010,9 hPa 0,0 l/m 0 min 0 min 0,0 UV-I 0 W/m 10,3 km/h (2 Bft)
18.04.2013 02:36 16,9 C 14,0 C 70 % 1010,9 hPa 0,0 l/m 0 min 0 min 0,0 UV-I 0 W/m 15,4 km/h (3 Bft)
18.04.2013 02:38 16,8 C 14,0 C 70 % 1010,8 hPa 0,0 l/m 0 min 0 min 0,0 UV-I 0 W/m 10,3 km/h (2 Bft)
18.04.2013 02:40 16,8 C 14,0 C 70 % 1010,8 hPa 0,0 l/m 0 min 0 min 0,0 UV-I 0 W/m 12,9 km/h (3 Bft)
18.04.2013 02:42 16,8 C 14,0 C 70 % 1010,8 hPa 0,0 l/m 0 min 0 min 0,0 UV-I 0 W/m 12,9 km/h (3 Bft)
18.04.2013 02:44 16,8 C 14,0 C 71 % 1010,9 hPa 0,0 l/m 0 min 0 min 0,0 UV-I 0 W/m 20,6 km/h (4 Bft)
18.04.2013 02:46 16,8 C 14,0 C 71 % 1010,8 hPa 0,0 l/m 0 min 0 min 0,0 UV-I 0 W/m 12,9 km/h (3 Bft)
18.04.2013 02:48 16,8 C 14,0 C 71 % 1010,8 hPa 0,0 l/m 0 min 0 min 0,0 UV-I 0 W/m 18,0 km/h (3 Bft)
18.04.2013 02:50 16,7 C 14,0 C 71 % 1010,8 hPa 0,0 l/m 0 min 0 min 0,0 UV-I 0 W/m 18,0 km/h (3 Bft)
18.04.2013 02:52 16,7 C 14,0 C 71 % 1010,8 hPa 0,0 l/m 0 min 0 min 0,0 UV-I 0 W/m 12,9 km/h (3 Bft)
18.04.2013 02:54 16,7 C 14,0 C 71 % 1010,9 hPa 0,0 l/m 0 min 0 min 0,0 UV-I 0 W/m 10,3 km/h (2 Bft)
18.04.2013 02:56 16,7 C 14,0 C 71 % 1010,8 hPa 0,0 l/m 0 min 0 min 0,0 UV-I 0 W/m 12,9 km/h (3 Bft)
18.04.2013 02:58 16,7 C 14,0 C 71 % 1010,8 hPa 0,0 l/m 0 min 0 min 0,0 UV-I 0 W/m 15,4 km/h (3 Bft)
18.04.2013 03:00 16,7 C 14,0 C 71 % 1010,8 hPa 0,0 l/m 0 min 0 min 0,0 UV-I 0 W/m 15,4 km/h (3 Bft)
18.04.2013 03:02 16,6 C 14,0 C 71 % 1010,8 hPa 0,0 l/m 0 min 0 min 0,0 UV-I 0 W/m 12,9 km/h (3 Bft)
18.04.2013 03:06 16,6 C 14,0 C 71 % 1010,7 hPa 0,0 l/m 0 min 0 min 0,0 UV-I 0 W/m 18,0 km/h (3 Bft)
18.04.2013 03:08 16,6 C 14,0 C 71 % 1010,7 hPa 0,0 l/m 0 min 0 min 0,0 UV-I 0 W/m 20,6 km/h (4 Bft)
18.04.2013 03:10 16,6 C 14,0 C 71 % 1010,8 hPa 0,0 l/m 0 min 0 min 0,0 UV-I 0 W/m 15,4 km/h (3 Bft)
18.04.2013 03:12 16,6 C 14,6 C 72 % 1010,7 hPa 0,0 l/m 0 min 0 min 0,0 UV-I 0 W/m 12,9 km/h (3 Bft)
18.04.2013 03:14 16,6 C 14,0 C 72 % 1010,7 hPa 0,0 l/m 0 min 0 min 0,0 UV-I 0 W/m 12,9 km/h (3 Bft)
18.04.2013 03:16 16,5 C 14,0 C 72 % 1010,6 hPa 0,0 l/m 0 min 0 min 0,0 UV-I 0 W/m 12,9 km/h (3 Bft)
18.04.2013 03:18 16,5 C 14,0 C 72 % 1010,6 hPa 0,0 l/m 0 min 0 min 0,0 UV-I 0 W/m 15,4 km/h (3 Bft)
18.04.2013 03:20 16,4 C 14,0 C 72 % 1010,6 hPa 0,0 l/m 0 min 0 min 0,0 UV-I 0 W/m 10,3 km/h (2 Bft)
18.04.2013 03:22 16,4 C 14,0 C 72 % 1010,6 hPa 0,0 l/m 0 min 0 min 0,0 UV-I 0 W/m 7,7 km/h (2 Bft)
18.04.2013 03:24 16,4 C 14,0 C 72 % 1010,5 hPa 0,0 l/m 0 min 0 min 0,0 UV-I 0 W/m 12,9 km/h (3 Bft)
18.04.2013 03:26 16,4 C 13,4 C 72 % 1010,5 hPa 0,0 l/m 0 min 0 min 0,0 UV-I 0 W/m 12,9 km/h (3 Bft)
18.04.2013 03:28 16,3 C 13,4 C 72 % 1010,5 hPa 0,0 l/m 0 min 0 min 0,0 UV-I 0 W/m 7,7 km/h (2 Bft)
18.04.2013 03:30 16,3 C 13,4 C 72 % 1010,5 hPa 0,0 l/m 0 min 0 min 0,0 UV-I 0 W/m 15,4 km/h (3 Bft)
18.04.2013 03:32 16,3 C 13,4 C 73 % 1010,5 hPa 0,0 l/m 0 min 0 min 0,0 UV-I 0 W/m 7,7 km/h (2 Bft)
18.04.2013 03:34 16,3 C 13,4 C 73 % 1010,5 hPa 0,0 l/m 0 min 0 min 0,0 UV-I 0 W/m 12,9 km/h (3 Bft)
18.04.2013 03:36 16,2 C 13,4 C 73 % 1010,5 hPa 0,0 l/m 0 min 0 min 0,0 UV-I 0 W/m 10,3 km/h (2 Bft)
18.04.2013 03:38 16,2 C 13,4 C 73 % 1010,4 hPa 0,0 l/m 0 min 0 min 0,0 UV-I 0 W/m 12,9 km/h (3 Bft)
18.04.2013 03:40 16,2 C 13,4 C 73 % 1010,4 hPa 0,0 l/m 0 min 0 min 0,0 UV-I 0 W/m 12,9 km/h (3 Bft)
18.04.2013 03:42 16,2 C 13,4 C 73 % 1010,4 hPa 0,0 l/m 0 min 0 min 0,0 UV-I 0 W/m 10,3 km/h (2 Bft)
18.04.2013 03:44 16,1 C 13,4 C 73 % 1010,4 hPa 0,0 l/m 0 min 0 min 0,0 UV-I 0 W/m 10,3 km/h (2 Bft)
18.04.2013 03:46 16,1 C 13,4 C 73 % 1010,4 hPa 0,0 l/m 0 min 0 min 0,0 UV-I 0 W/m 10,3 km/h (2 Bft)
18.04.2013 03:48 16,1 C 13,4 C 73 % 1010,4 hPa 0,0 l/m 0 min 0 min 0,0 UV-I 0 W/m 12,9 km/h (3 Bft)
18.04.2013 03:50 16,1 C 13,4 C 73 % 1010,3 hPa 0,0 l/m 0 min 0 min 0,0 UV-I 0 W/m 10,3 km/h (2 Bft)
18.04.2013 03:52 16,0 C 13,4 C 74 % 1010,4 hPa 0,0 l/m 0 min 0 min 0,0 UV-I 0 W/m 12,9 km/h (3 Bft)
18.04.2013 03:54 15,9 C 13,4 C 74 % 1010,4 hPa 0,0 l/m 0 min 0 min 0,0 UV-I 0 W/m 10,3 km/h (2 Bft)
18.04.2013 03:56 15,9 C 13,4 C 74 % 1010,4 hPa 0,0 l/m 0 min 0 min 0,0 UV-I 0 W/m 10,3 km/h (2 Bft)
18.04.2013 03:58 15,9 C 13,4 C 74 % 1010,4 hPa 0,0 l/m 0 min 0 min 0,0 UV-I 0 W/m 12,9 km/h (3 Bft)
18.04.2013 04:00 15,8 C 13,4 C 74 % 1010,5 hPa 0,0 l/m 0 min 0 min 0,0 UV-I 0 W/m 12,9 km/h (3 Bft)
18.04.2013 04:02 15,8 C 13,4 C 74 % 1010,5 hPa 0,0 l/m 0 min 0 min 0,0 UV-I 0 W/m 10,3 km/h (2 Bft)
18.04.2013 04:04 15,8 C 13,4 C 74 % 1010,4 hPa 0,0 l/m 0 min 0 min 0,0 UV-I 0 W/m 7,7 km/h (2 Bft)
18.04.2013 04:06 15,8 C 13,4 C 74 % 1010,5 hPa 0,0 l/m 0 min 0 min 0,0 UV-I 0 W/m 7,7 km/h (2 Bft)
18.04.2013 04:08 15,8 C 13,4 C 74 % 1010,5 hPa 0,0 l/m 0 min 0 min 0,0 UV-I 0 W/m 10,3 km/h (2 Bft)
18.04.2013 04:10 15,8 C 13,4 C 74 % 1010,4 hPa 0,0 l/m 0 min 0 min 0,0 UV-I 0 W/m 7,7 km/h (2 Bft)
18.04.2013 04:12 15,7 C 13,4 C 74 % 1010,4 hPa 0,0 l/m 0 min 0 min 0,0 UV-I 0 W/m 5,1 km/h (1 Bft)
18.04.2013 04:14 15,7 C 13,4 C 74 % 1010,5 hPa 0,0 l/m 0 min 0 min 0,0 UV-I 0 W/m 10,3 km/h (2 Bft)
18.04.2013 04:16 15,7 C 13,4 C 74 % 1010,5 hPa 0,0 l/m 0 min 0 min 0,0 UV-I 0 W/m 10,3 km/h (2 Bft)
18.04.2013 04:18 15,7 C 12,9 C 74 % 1010,4 hPa 0,0 l/m 0 min 0 min 0,0 UV-I 0 W/m 10,3 km/h (2 Bft)
18.04.2013 04:20 15,7 C 12,9 C 75 % 1010,4 hPa 0,0 l/m 0 min 0 min 0,0 UV-I 0 W/m 7,7 km/h (2 Bft)
18.04.2013 04:22 15,6 C 12,9 C 75 % 1010,4 hPa 0,0 l/m 0 min 0 min 0,0 UV-I 0 W/m 12,9 km/h (3 Bft)
18.04.2013 04:24 15,6 C 13,4 C 75 % 1010,3 hPa 0,0 l/m 0 min 0 min 0,0 UV-I 0 W/m 2,6 km/h (1 Bft)
18.04.2013 04:26 15,6 C 13,4 C 75 % 1010,3 hPa 0,0 l/m 0 min 0 min 0,0 UV-I 0 W/m 7,7 km/h (2 Bft)
18.04.2013 04:28 15,6 C 13,4 C 75 % 1010,4 hPa 0,0 l/m 0 min 0 min 0,0 UV-I 0 W/m 7,7 km/h (2 Bft)
18.04.2013 04:30 15,6 C 13,4 C 75 % 1010,4 hPa 0,0 l/m 0 min 0 min 0,0 UV-I 0 W/m 0,0 km/h (0 Bft)
18.04.2013 04:32 15,6 C 13,4 C 75 % 1010,4 hPa 0,0 l/m 0 min 0 min 0,0 UV-I 0 W/m 12,9 km/h (3 Bft)
18.04.2013 04:34 15,6 C 12,9 C 75 % 1010,3 hPa 0,0 l/m 0 min 0 min 0,0 UV-I 0 W/m 5,1 km/h (1 Bft)
18.04.2013 04:36 15,5 C 12,9 C 75 % 1010,3 hPa 0,0 l/m 0 min 0 min 0,0 UV-I 0 W/m 7,7 km/h (2 Bft)
18.04.2013 04:38 15,5 C 12,9 C 75 % 1010,3 hPa 0,0 l/m 0 min 0 min 0,0 UV-I 0 W/m 7,7 km/h (2 Bft)
18.04.2013 04:40 15,5 C 12,9 C 75 % 1010,3 hPa 0,0 l/m 0 min 0 min 0,0 UV-I 0 W/m 5,1 km/h (1 Bft)
18.04.2013 04:42 15,4 C 12,9 C 75 % 1010,3 hPa 0,0 l/m 0 min 0 min 0,0 UV-I 0 W/m 5,1 km/h (1 Bft)
18.04.2013 04:44 15,4 C 12,9 C 75 % 1010,4 hPa 0,0 l/m 0 min 0 min 0,0 UV-I 0 W/m 0,0 km/h (0 Bft)
18.04.2013 04:46 15,4 C 12,9 C 75 % 1010,4 hPa 0,0 l/m 0 min 0 min 0,0 UV-I 0 W/m 2,6 km/h (1 Bft)
18.04.2013 04:48 15,4 C 12,9 C 75 % 1010,4 hPa 0,0 l/m 0 min 0 min 0,0 UV-I 0 W/m 0,0 km/h (0 Bft)
18.04.2013 04:50 15,4 C 12,3 C 75 % 1010,3 hPa 0,0 l/m 0 min 0 min 0,0 UV-I 0 W/m 0,0 km/h (0 Bft)
18.04.2013 04:52 15,4 C 12,3 C 75 % 1010,3 hPa 0,0 l/m 0 min 0 min 0,0 UV-I 0 W/m 0,0 km/h (0 Bft)
18.04.2013 04:54 15,4 C 12,3 C 75 % 1010,4 hPa 0,0 l/m 0 min 0 min 0,0 UV-I 0 W/m 0,0 km/h (0 Bft)
18.04.2013 04:56 15,3 C 12,3 C 75 % 1010,3 hPa 0,0 l/m 0 min 0 min 0,0 UV-I 0 W/m 0,0 km/h (0 Bft)
18.04.2013 04:58 15,3 C 12,3 C 75 % 1010,3 hPa 0,0 l/m 0 min 0 min 0,0 UV-I 0 W/m 0,0 km/h (0 Bft)
18.04.2013 05:00 15,3 C 12,3 C 75 % 1010,4 hPa 0,0 l/m 0 min 0 min 0,0 UV-I 0 W/m 0,0 km/h (0 Bft)
18.04.2013 05:02 15,3 C 12,3 C 75 % 1010,3 hPa 0,0 l/m 0 min 0 min 0,0 UV-I 0 W/m 0,0 km/h (0 Bft)
18.04.2013 05:04 15,2 C 11,8 C 75 % 1010,3 hPa 0,0 l/m 0 min 0 min 0,0 UV-I 0 W/m 0,0 km/h (0 Bft)
18.04.2013 05:06 15,2 C 11,8 C 75 % 1010,3 hPa 0,0 l/m 0 min 0 min 0,0 UV-I 0 W/m 0,0 km/h (0 Bft)
18.04.2013 05:08 15,2 C 11,8 C 75 % 1010,3 hPa 0,0 l/m 0 min 0 min 0,0 UV-I 0 W/m 0,0 km/h (0 Bft)
18.04.2013 05:10 15,1 C 11,8 C 75 % 1010,4 hPa 0,0 l/m 0 min 0 min 0,0 UV-I 0 W/m 0,0 km/h (0 Bft)
18.04.2013 05:12 15,1 C 11,8 C 75 % 1010,4 hPa 0,0 l/m 0 min 0 min 0,0 UV-I 0 W/m 0,0 km/h (0 Bft)
18.04.2013 05:14 15,0 C 11,8 C 75 % 1010,4 hPa 0,0 l/m 0 min 0 min 0,0 UV-I 0 W/m 0,0 km/h (0 Bft)
18.04.2013 05:16 15,0 C 11,8 C 76 % 1010,4 hPa 0,0 l/m 0 min 0 min 0,0 UV-I 0 W/m 0,0 km/h (0 Bft)
18.04.2013 05:18 15,0 C 11,2 C 76 % 1010,5 hPa 0,0 l/m 0 min 0 min 0,0 UV-I 0 W/m 0,0 km/h (0 Bft)
18.04.2013 05:20 15,0 C 11,2 C 76 % 1010,5 hPa 0,0 l/m 0 min 0 min 0,0 UV-I 0 W/m 0,0 km/h (0 Bft)
18.04.2013 05:22 15,0 C 11,2 C 76 % 1010,5 hPa 0,0 l/m 0 min 0 min 0,0 UV-I 0 W/m 0,0 km/h (0 Bft)
18.04.2013 05:24 15,0 C 11,2 C 76 % 1010,5 hPa 0,0 l/m 0 min 0 min 0,0 UV-I 0 W/m 0,0 km/h (0 Bft)
18.04.2013 05:26 14,9 C 11,2 C 76 % 1010,6 hPa 0,0 l/m 0 min 0 min 0,0 UV-I 0 W/m 0,0 km/h (0 Bft)
18.04.2013 05:28 14,9 C 11,2 C 76 % 1010,6 hPa 0,0 l/m 0 min 0 min 0,0 UV-I 0 W/m 0,0 km/h (0 Bft)
18.04.2013 05:30 14,8 C 11,2 C 76 % 1010,6 hPa 0,0 l/m 0 min 0 min 0,0 UV-I 0 W/m 0,0 km/h (0 Bft)
18.04.2013 05:32 14,7 C 11,2 C 76 % 1010,7 hPa 0,0 l/m 0 min 0 min 0,0 UV-I 0 W/m 0,0 km/h (0 Bft)
18.04.2013 05:34 14,7 C 11,2 C 77 % 1010,7 hPa 0,0 l/m 0 min 0 min 0,0 UV-I 0 W/m 0,0 km/h (0 Bft)
18.04.2013 05:36 14,6 C 11,2 C 77 % 1010,7 hPa 0,0 l/m 0 min 0 min 0,0 UV-I 0 W/m 0,0 km/h (0 Bft)
18.04.2013 05:38 14,6 C 11,2 C 78 % 1010,6 hPa 0,0 l/m 0 min 0 min 0,0 UV-I 0 W/m 5,1 km/h (1 Bft)
18.04.2013 05:40 14,5 C 11,8 C 78 % 1010,6 hPa 0,0 l/m 0 min 0 min 0,0 UV-I 0 W/m 0,0 km/h (0 Bft)
18.04.2013 05:42 14,4 C 11,8 C 78 % 1010,7 hPa 0,0 l/m 0 min 0 min 0,0 UV-I 0 W/m 0,0 km/h (0 Bft)
18.04.2013 05:44 14,4 C 11,8 C 78 % 1010,7 hPa 0,0 l/m 0 min 0 min 0,0 UV-I 0 W/m 0,0 km/h (0 Bft)
18.04.2013 05:46 14,4 C 11,8 C 78 % 1010,7 hPa 0,0 l/m 0 min 0 min 0,0 UV-I 0 W/m 0,0 km/h (0 Bft)
18.04.2013 05:48 14,4 C 12,3 C 79 % 1010,7 hPa 0,0 l/m 0 min 0 min 0,0 UV-I 0 W/m 7,7 km/h (2 Bft)
18.04.2013 05:50 14,4 C 12,9 C 79 % 1010,8 hPa 0,0 l/m 0 min 0 min 0,0 UV-I 0 W/m 5,1 km/h (1 Bft)
18.04.2013 05:52 14,5 C 12,9 C 79 % 1010,9 hPa 0,0 l/m 0 min 0 min 0,0 UV-I 0 W/m 7,7 km/h (2 Bft)
18.04.2013 05:54 14,6 C 13,4 C 80 % 1011,0 hPa 0,0 l/m 0 min 0 min 0,0 UV-I 0 W/m 7,7 km/h (2 Bft)
18.04.2013 05:56 14,7 C 13,4 C 80 % 1011,1 hPa 0,0 l/m 0 min 0 min 0,0 UV-I 0 W/m 15,4 km/h (3 Bft)
18.04.2013 05:58 14,8 C 14,0 C 80 % 1011,1 hPa 0,0 l/m 0 min 0 min 0,0 UV-I 0 W/m 10,3 km/h (2 Bft)
18.04.2013 06:00 15,0 C 14,6 C 79 % 1011,1 hPa 0,0 l/m 0 min 0 min 0,0 UV-I 0 W/m 10,3 km/h (2 Bft)
18.04.2013 06:02 15,0 C 14,6 C 79 % 1011,2 hPa 0,0 l/m 0 min 0 min 0,0 UV-I 0 W/m 12,9 km/h (3 Bft)
18.04.2013 06:04 15,3 C 14,6 C 78 % 1011,2 hPa 0,0 l/m 0 min 0 min 0,0 UV-I 0 W/m 23,2 km/h (4 Bft)
18.04.2013 06:06 15,6 C 14,6 C 77 % 1011,3 hPa 0,0 l/m 0 min 0 min 0,0 UV-I 0 W/m 20,6 km/h (4 Bft)
18.04.2013 06:08 15,7 C 14,6 C 77 % 1011,6 hPa 0,0 l/m 0 min 0 min 0,0 UV-I 0 W/m 18,0 km/h (3 Bft)
18.04.2013 06:10 15,9 C 14,6 C 76 % 1011,6 hPa 0,0 l/m 0 min 0 min 0,0 UV-I 0 W/m 12,9 km/h (3 Bft)
18.04.2013 06:12 15,9 C 14,6 C 76 % 1011,6 hPa 0,0 l/m 0 min 0 min 0,0 UV-I 0 W/m 20,6 km/h (4 Bft)
18.04.2013 06:14 15,9 C 14,0 C 76 % 1011,7 hPa 0,0 l/m 0 min 0 min 0,0 UV-I 0 W/m 15,4 km/h (3 Bft)
18.04.2013 06:16 15,9 C 14,0 C 76 % 1011,8 hPa 0,0 l/m 0 min 0 min 0,0 UV-I 0 W/m 25,7 km/h (4 Bft)
18.04.2013 06:18 15,9 C 14,0 C 76 % 1012,0 hPa 0,0 l/m 0 min 0 min 0,0 UV-I 0 W/m 2,6 km/h (1 Bft)
18.04.2013 06:20 15,8 C 13,4 C 76 % 1012,1 hPa 0,0 l/m 0 min 0 min 0,0 UV-I 0 W/m 10,3 km/h (2 Bft)
18.04.2013 06:22 15,8 C 13,4 C 76 % 1012,0 hPa 0,0 l/m 0 min 0 min 0,0 UV-I 0 W/m 12,9 km/h (3 Bft)
18.04.2013 06:24 15,7 C 13,4 C 76 % 1012,2 hPa 0,0 l/m 0 min 0 min 0,0 UV-I 0 W/m 36,0 km/h (5 Bft)
18.04.2013 06:26 15,7 C 13,4 C 76 % 1012,2 hPa 0,0 l/m 0 min 0 min 0,0 UV-I 0 W/m 25,7 km/h (4 Bft)
18.04.2013 06:28 15,6 C 13,4 C 75 % 1012,3 hPa 0,0 l/m 0 min 0 min 0,0 UV-I 0 W/m 33,5 km/h (5 Bft)
18.04.2013 06:30 15,4 C 13,4 C 75 % 1012,3 hPa 0,0 l/m 0 min 0 min 0,0 UV-I 0 W/m 23,2 km/h (4 Bft)
18.04.2013 06:32 15,3 C 13,4 C 75 % 1012,3 hPa 0,0 l/m 0 min 0 min 0,0 UV-I 0 W/m 20,6 km/h (4 Bft)
18.04.2013 06:34 15,3 C 13,4 C 75 % 1012,3 hPa 0,0 l/m 0 min 0 min 0,0 UV-I 0 W/m 25,7 km/h (4 Bft)
18.04.2013 06:36 15,2 C 13,4 C 75 % 1012,4 hPa 0,0 l/m 0 min 0 min 0,0 UV-I 0 W/m 23,2 km/h (4 Bft)
18.04.2013 06:38 15,0 C 13,4 C 75 % 1012,4 hPa 0,0 l/m 0 min 0 min 0,0 UV-I 0 W/m 15,4 km/h (3 Bft)
18.04.2013 06:40 15,0 C 12,9 C 75 % 1012,4 hPa 0,0 l/m 0 min 0 min 0,0 UV-I 5 W/m 12,9 km/h (3 Bft)
18.04.2013 06:42 15,0 C 12,9 C 75 % 1012,5 hPa 0,0 l/m 0 min 0 min 0,0 UV-I 5 W/m 7,7 km/h (2 Bft)
18.04.2013 06:44 15,0 C 12,9 C 76 % 1012,5 hPa 0,0 l/m 0 min 0 min 0,0 UV-I 7 W/m 15,4 km/h (3 Bft)
18.04.2013 06:46 14,9 C 12,9 C 76 % 1012,5 hPa 0,0 l/m 0 min 0 min 0,0 UV-I 7 W/m 20,6 km/h (4 Bft)
18.04.2013 06:48 14,8 C 12,9 C 76 % 1012,5 hPa 0,0 l/m 0 min 0 min 0,0 UV-I 7 W/m 15,4 km/h (3 Bft)
18.04.2013 06:50 14,8 C 12,9 C 77 % 1012,6 hPa 0,0 l/m 0 min 0 min 0,0 UV-I 9 W/m 10,3 km/h (2 Bft)
18.04.2013 06:52 14,7 C 12,9 C 76 % 1012,7 hPa 0,0 l/m 0 min 0 min 0,0 UV-I 11 W/m 20,6 km/h (4 Bft)
18.04.2013 06:54 14,7 C 12,9 C 77 % 1012,7 hPa 0,0 l/m 0 min 0 min 0,0 UV-I 11 W/m 2,6 km/h (1 Bft)
18.04.2013 06:56 14,6 C 12,9 C 77 % 1012,7 hPa 0,0 l/m 0 min 0 min 0,0 UV-I 12 W/m 12,9 km/h (3 Bft)
18.04.2013 06:58 14,6 C 12,9 C 77 % 1012,8 hPa 0,0 l/m 0 min 0 min 0,0 UV-I 14 W/m 15,4 km/h (3 Bft)
18.04.2013 07:00 14,6 C 12,9 C 77 % 1012,8 hPa 0,0 l/m 0 min 0 min 0,0 UV-I 16 W/m 7,7 km/h (2 Bft)
18.04.2013 07:02 14,5 C 12,3 C 78 % 1012,9 hPa 0,0 l/m 0 min 0 min 0,0 UV-I 19 W/m 5,1 km/h (1 Bft)
18.04.2013 07:04 14,4 C 12,3 C 78 % 1012,8 hPa 0,0 l/m 0 min 0 min 0,0 UV-I 21 W/m 12,9 km/h (3 Bft)
18.04.2013 07:06 14,4 C 12,3 C 78 % 1012,9 hPa 0,0 l/m 0 min 0 min 0,0 UV-I 23 W/m 5,1 km/h (1 Bft)
18.04.2013 07:08 14,4 C 12,3 C 78 % 1012,9 hPa 0,0 l/m 0 min 0 min 0,0 UV-I 26 W/m 5,1 km/h (1 Bft)
18.04.2013 07:10 14,3 C 12,3 C 78 % 1013,1 hPa 0,0 l/m 0 min 0 min 0,0 UV-I 33 W/m 2,6 km/h (1 Bft)
18.04.2013 07:12 14,3 C 12,3 C 78 % 1013,1 hPa 0,0 l/m 0 min 0 min 0,0 UV-I 37 W/m 5,1 km/h (1 Bft)
18.04.2013 07:14 14,3 C 12,3 C 79 % 1013,1 hPa 0,0 l/m 0 min 0 min 0,0 UV-I 40 W/m 5,1 km/h (1 Bft)
18.04.2013 07:16 14,3 C 12,9 C 79 % 1013,1 hPa 0,0 l/m 0 min 0 min 0,0 UV-I 35 W/m 5,1 km/h (1 Bft)
18.04.2013 07:18 14,2 C 12,9 C 79 % 1013,2 hPa 0,0 l/m 0 min 0 min 0,0 UV-I 35 W/m 7,7 km/h (2 Bft)
18.04.2013 07:20 14,2 C 12,9 C 79 % 1013,3 hPa 0,0 l/m 0 min 0 min 0,0 UV-I 33 W/m 10,3 km/h (2 Bft)
18.04.2013 07:22 14,2 C 12,9 C 79 % 1013,3 hPa 0,0 l/m 0 min 0 min 0,0 UV-I 28 W/m 15,4 km/h (3 Bft)
18.04.2013 07:24 14,2 C 12,9 C 78 % 1013,3 hPa 0,0 l/m 0 min 0 min 0,0 UV-I 26 W/m 23,2 km/h (4 Bft)
18.04.2013 07:26 14,1 C 12,9 C 78 % 1013,3 hPa 0,0 l/m 0 min 0 min 0,0 UV-I 21 W/m 18,0 km/h (3 Bft)
18.04.2013 07:28 14,1 C 12,9 C 76 % 1013,3 hPa 0,0 l/m 0 min 0 min 0,0 UV-I 21 W/m 18,0 km/h (3 Bft)
18.04.2013 07:30 14,1 C 12,9 C 75 % 1013,4 hPa 0,0 l/m 0 min 0 min 0,0 UV-I 19 W/m 20,6 km/h (4 Bft)
18.04.2013 07:32 14,0 C 12,9 C 75 % 1013,4 hPa 0,0 l/m 0 min 0 min 0,0 UV-I 19 W/m 28,3 km/h (4 Bft)
18.04.2013 07:34 14,0 C 12,9 C 74 % 1013,4 hPa 0,0 l/m 0 min 0 min 0,0 UV-I 18 W/m 25,7 km/h (4 Bft)
18.04.2013 07:36 13,9 C 12,9 C 74 % 1013,5 hPa 0,0 l/m 0 min 0 min 0,0 UV-I 14 W/m 10,3 km/h (2 Bft)
18.04.2013 07:38 13,9 C 12,9 C 74 % 1013,4 hPa 0,0 l/m 0 min 0 min 0,0 UV-I 14 W/m 10,3 km/h (2 Bft)
18.04.2013 07:40 13,9 C 12,9 C 74 % 1013,5 hPa 0,0 l/m 0 min 0 min 0,0 UV-I 14 W/m 18,0 km/h (3 Bft)
18.04.2013 07:42 13,9 C 12,9 C 74 % 1013,5 hPa 0,0 l/m 0 min 0 min 0,0 UV-I 11 W/m 18,0 km/h (3 Bft)
18.04.2013 07:44 13,9 C 12,9 C 74 % 1013,6 hPa 0,0 l/m 0 min 0 min 0,0 UV-I 12 W/m 20,6 km/h (4 Bft)
18.04.2013 07:46 13,9 C 12,9 C 74 % 1013,7 hPa 0,0 l/m 0 min 0 min 0,0 UV-I 12 W/m 18,0 km/h (3 Bft)
18.04.2013 07:48 13,8 C 12,9 C 75 % 1013,6 hPa 0,0 l/m 0 min 0 min 0,0 UV-I 14 W/m 10,3 km/h (2 Bft)
18.04.2013 07:50 13,8 C 12,9 C 75 % 1013,8 hPa 0,0 l/m 0 min 0 min 0,0 UV-I 14 W/m 25,7 km/h (4 Bft)
18.04.2013 07:52 13,8 C 12,9 C 75 % 1013,7 hPa 0,0 l/m 0 min 0 min 0,0 UV-I 16 W/m 10,3 km/h (2 Bft)
18.04.2013 07:54 13,8 C 12,9 C 75 % 1013,8 hPa 0,0 l/m 0 min 0 min 0,0 UV-I 21 W/m 15,4 km/h (3 Bft)
18.04.2013 07:56 13,8 C 12,3 C 75 % 1013,9 hPa 0,0 l/m 0 min 0 min 0,0 UV-I 23 W/m 12,9 km/h (3 Bft)
18.04.2013 07:58 13,8 C 12,9 C 75 % 1013,9 hPa 0,0 l/m 0 min 0 min 0,0 UV-I 23 W/m 10,3 km/h (2 Bft)
18.04.2013 08:00 13,8 C 12,9 C 75 % 1013,9 hPa 0,0 l/m 0 min 0 min 0,0 UV-I 23 W/m 5,1 km/h (1 Bft)
18.04.2013 08:02 13,7 C 12,9 C 75 % 1014,0 hPa 0,0 l/m 0 min 0 min 0,0 UV-I 28 W/m 12,9 km/h (3 Bft)
18.04.2013 08:04 13,7 C 12,9 C 74 % 1014,0 hPa 0,0 l/m 0 min 0 min 0,0 UV-I 26 W/m 7,7 km/h (2 Bft)
18.04.2013 08:06 13,7 C 12,9 C 73 % 1014,1 hPa 0,0 l/m 0 min 0 min 0,0 UV-I 26 W/m 15,4 km/h (3 Bft)
18.04.2013 08:08 13,7 C 12,3 C 73 % 1014,1 hPa 0,0 l/m 0 min 0 min 0,0 UV-I 30 W/m 15,4 km/h (3 Bft)
18.04.2013 08:10 13,7 C 12,3 C 73 % 1014,1 hPa 0,0 l/m 0 min 0 min 0,0 UV-I 37 W/m 10,3 km/h (2 Bft)
18.04.2013 08:12 13,6 C 12,3 C 71 % 1014,1 hPa 0,0 l/m 0 min 0 min 0,0 UV-I 37 W/m 18,0 km/h (3 Bft)
18.04.2013 08:14 13,6 C 12,3 C 70 % 1014,2 hPa 0,0 l/m 0 min 0 min 0,0 UV-I 37 W/m 18,0 km/h (3 Bft)
18.04.2013 08:16 13,6 C 12,3 C 69 % 1014,1 hPa 0,0 l/m 0 min 0 min 0,0 UV-I 42 W/m 7,7 km/h (2 Bft)
18.04.2013 08:18 13,6 C 12,3 C 68 % 1014,1 hPa 0,0 l/m 0 min 0 min 0,0 UV-I 54 W/m 15,4 km/h (3 Bft)
18.04.2013 08:20 13,5 C 12,3 C 68 % 1014,1 hPa 0,0 l/m 0 min 0 min 0,0 UV-I 54 W/m 7,7 km/h (2 Bft)
18.04.2013 08:22 13,5 C 12,3 C 66 % 1014,1 hPa 0,0 l/m 0 min 0 min 0,0 UV-I 56 W/m 20,6 km/h (4 Bft)
18.04.2013 08:24 13,5 C 12,3 C 66 % 1014,2 hPa 0,0 l/m 0 min 0 min 0,0 UV-I 70 W/m 18,0 km/h (3 Bft)
18.04.2013 08:26 13,4 C 12,3 C 65 % 1014,2 hPa 0,0 l/m 0 min 0 min 0,0 UV-I 76 W/m 28,3 km/h (4 Bft)
18.04.2013 08:28 13,4 C 12,3 C 64 % 1014,3 hPa 0,0 l/m 0 min 0 min 0,0 UV-I 76 W/m 23,2 km/h (4 Bft)
18.04.2013 08:30 13,4 C 12,3 C 65 % 1014,2 hPa 0,0 l/m 0 min 0 min 0,0 UV-I 70 W/m 7,7 km/h (2 Bft)
18.04.2013 08:32 13,4 C 12,3 C 65 % 1014,3 hPa 0,0 l/m 0 min 0 min 0,0 UV-I 67 W/m 15,4 km/h (3 Bft)
18.04.2013 08:34 13,4 C 12,3 C 65 % 1014,2 hPa 0,0 l/m 0 min 0 min 0,0 UV-I 47 W/m 36,0 km/h (5 Bft)
18.04.2013 08:36 13,4 C 12,3 C 65 % 1014,4 hPa 0,0 l/m 0 min 0 min 0,0 UV-I 44 W/m 18,0 km/h (3 Bft)
18.04.2013 08:38 13,4 C 12,3 C 65 % 1014,4 hPa 0,0 l/m 0 min 0 min 0,0 UV-I 42 W/m 20,6 km/h (4 Bft)
18.04.2013 08:40 13,3 C 11,8 C 66 % 1014,4 hPa 0,0 l/m 0 min 0 min 0,0 UV-I 51 W/m 10,3 km/h (2 Bft)
18.04.2013 08:42 13,3 C 12,3 C 66 % 1014,5 hPa 0,0 l/m 0 min 0 min 0,0 UV-I 72 W/m 12,9 km/h (3 Bft)
18.04.2013 08:44 13,3 C 12,3 C 67 % 1014,4 hPa 0,0 l/m 0 min 0 min 0,0 UV-I 62 W/m 18,0 km/h (3 Bft)
18.04.2013 08:46 13,4 C 12,3 C 67 % 1014,5 hPa 0,0 l/m 0 min 0 min 0,0 UV-I 46 W/m 18,0 km/h (3 Bft)
18.04.2013 08:48 13,4 C 12,3 C 68 % 1014,6 hPa 0,0 l/m 0 min 0 min 0,0 UV-I 47 W/m 18,0 km/h (3 Bft)
18.04.2013 08:50 13,4 C 12,3 C 68 % 1014,6 hPa 0,0 l/m 0 min 0 min 0,0 UV-I 47 W/m 12,9 km/h (3 Bft)
18.04.2013 08:52 13,5 C 12,3 C 68 % 1014,6 hPa 0,0 l/m 0 min 0 min 0,0 UV-I 47 W/m 5,1 km/h (1 Bft)
18.04.2013 08:54 13,6 C 12,3 C 68 % 1014,7 hPa 0,0 l/m 0 min 0 min 0,0 UV-I 47 W/m 33,5 km/h (5 Bft)
18.04.2013 08:56 13,6 C 12,3 C 66 % 1014,7 hPa 0,0 l/m 0 min 0 min 0,0 UV-I 47 W/m 18,0 km/h (3 Bft)
18.04.2013 08:58 13,7 C 12,3 C 65 % 1014,8 hPa 0,0 l/m 0 min 0 min 0,0 UV-I 49 W/m 20,6 km/h (4 Bft)
18.04.2013 09:00 13,7 C 12,3 C 64 % 1014,7 hPa 0,0 l/m 0 min 0 min 0,0 UV-I 53 W/m 23,2 km/h (4 Bft)
18.04.2013 09:02 13,7 C 12,3 C 63 % 1014,7 hPa 0,0 l/m 0 min 0 min 0,0 UV-I 60 W/m 12,9 km/h (3 Bft)
18.04.2013 09:04 13,8 C 12,3 C 63 % 1014,8 hPa 0,0 l/m 0 min 0 min 0,0 UV-I 65 W/m 25,7 km/h (4 Bft)
18.04.2013 09:06 13,8 C 12,3 C 63 % 1014,7 hPa 0,0 l/m 0 min 0 min 0,0 UV-I 77 W/m 15,4 km/h (3 Bft)
18.04.2013 09:08 13,8 C 12,3 C 61 % 1014,9 hPa 0,0 l/m 0 min 0 min 0,0 UV-I 93 W/m 20,6 km/h (4 Bft)
18.04.2013 09:10 13,9 C 12,3 C 61 % 1014,9 hPa 0,0 l/m 0 min 0 min 0,0 UV-I 114 W/m 30,9 km/h (5 Bft)
18.04.2013 09:12 13,9 C 12,3 C 60 % 1014,9 hPa 0,0 l/m 0 min 0 min 0,0 UV-I 132 W/m 25,7 km/h (4 Bft)
18.04.2013 09:14 13,9 C 12,3 C 61 % 1014,9 hPa 0,0 l/m 0 min 0 min 0,0 UV-I 160 W/m 18,0 km/h (3 Bft)
18.04.2013 09:16 13,9 C 12,3 C 60 % 1014,8 hPa 0,0 l/m 0 min 0 min 0,0 UV-I 193 W/m 20,6 km/h (4 Bft)
18.04.2013 09:18 14,0 C 12,9 C 60 % 1014,9 hPa 0,0 l/m 0 min 0 min 0,0 UV-I 227 W/m 18,0 km/h (3 Bft)
18.04.2013 09:20 14,0 C 12,3 C 60 % 1014,9 hPa 0,0 l/m 2 min 0 min 0,0 UV-I 257 W/m 18,0 km/h (3 Bft)
18.04.2013 09:22 14,1 C 12,9 C 60 % 1014,9 hPa 0,0 l/m 2 min 0 min 0,0 UV-I 272 W/m 23,2 km/h (4 Bft)
18.04.2013 09:24 14,1 C 12,9 C 60 % 1014,9 hPa 0,0 l/m 2 min 0 min 0,0 UV-I 323 W/m 12,9 km/h (3 Bft)
18.04.2013 09:26 14,2 C 12,9 C 60 % 1015,0 hPa 0,0 l/m 2 min 0 min 0,0 UV-I 318 W/m 30,9 km/h (5 Bft)
18.04.2013 09:28 14,2 C 12,9 C 59 % 1014,9 hPa 0,0 l/m 2 min 0 min 0,0 UV-I 339 W/m 23,2 km/h (4 Bft)
18.04.2013 09:30 14,3 C 13,4 C 59 % 1015,0 hPa 0,0 l/m 2 min 0 min 0,0 UV-I 350 W/m 20,6 km/h (4 Bft)
18.04.2013 09:32 14,3 C 14,0 C 59 % 1015,0 hPa 0,0 l/m 2 min 0 min 0,0 UV-I 355 W/m 30,9 km/h (5 Bft)
18.04.2013 09:34 14,3 C 15,7 C 60 % 1014,9 hPa 0,0 l/m 2 min 0 min 0,0 UV-I 338 W/m 10,3 km/h (2 Bft)
18.04.2013 09:36 14,4 C 17,3 C 59 % 1015,0 hPa 0,0 l/m 2 min 0 min 0,5 UV-I 381 W/m 12,9 km/h (3 Bft)
18.04.2013 09:38 14,4 C 18,4 C 59 % 1015,0 hPa 0,0 l/m 2 min 0 min 0,6 UV-I 383 W/m 18,0 km/h (3 Bft)
18.04.2013 09:40 14,5 C 19,0 C 59 % 1015,1 hPa 0,0 l/m 2 min 0 min 0,6 UV-I 394 W/m 10,3 km/h (2 Bft)
18.04.2013 09:42 14,6 C 19,0 C 59 % 1015,1 hPa 0,0 l/m 2 min 0 min 0,6 UV-I 385 W/m 20,6 km/h (4 Bft)
18.04.2013 09:44 14,6 C 19,0 C 58 % 1015,1 hPa 0,0 l/m 2 min 0 min 0,7 UV-I 401 W/m 23,2 km/h (4 Bft)
18.04.2013 09:46 14,7 C 19,0 C 58 % 1015,1 hPa 0,0 l/m 2 min 0 min 0,7 UV-I 413 W/m 30,9 km/h (5 Bft)
18.04.2013 09:48 14,7 C 18,4 C 58 % 1015,0 hPa 0,0 l/m 2 min 0 min 0,8 UV-I 410 W/m 20,6 km/h (4 Bft)
18.04.2013 09:50 14,8 C 19,0 C 58 % 1015,1 hPa 0,0 l/m 2 min 0 min 0,8 UV-I 420 W/m 23,2 km/h (4 Bft)
18.04.2013 09:52 14,8 C 19,0 C 58 % 1015,1 hPa 0,0 l/m 2 min 0 min 0,8 UV-I 424 W/m 20,6 km/h (4 Bft)
18.04.2013 09:54 14,9 C 19,0 C 57 % 1015,1 hPa 0,0 l/m 2 min 0 min 0,9 UV-I 434 W/m 30,9 km/h (5 Bft)
18.04.2013 09:56 14,9 C 19,0 C 56 % 1015,2 hPa 0,0 l/m 2 min 0 min 0,9 UV-I 425 W/m 23,2 km/h (4 Bft)
18.04.2013 09:58 15,0 C 19,0 C 56 % 1015,2 hPa 0,0 l/m 2 min 0 min 1,0 UV-I 445 W/m 28,3 km/h (4 Bft)
18.04.2013 10:00 15,0 C 19,0 C 57 % 1015,1 hPa 0,0 l/m 2 min 0 min 1,0 UV-I 445 W/m 10,3 km/h (2 Bft)
18.04.2013 10:02 15,0 C 19,6 C 57 % 1015,3 hPa 0,0 l/m 2 min 0 min 1,0 UV-I 445 W/m 18,0 km/h (3 Bft)
18.04.2013 10:04 15,0 C 19,6 C 57 % 1015,3 hPa 0,0 l/m 2 min 0 min 1,1 UV-I 446 W/m 23,2 km/h (4 Bft)
18.04.2013 10:06 15,1 C 19,0 C 57 % 1015,3 hPa 0,0 l/m 2 min 0 min 1,1 UV-I 461 W/m 23,2 km/h (4 Bft)
18.04.2013 10:08 15,2 C 19,0 C 58 % 1015,4 hPa 0,0 l/m 2 min 0 min 1,1 UV-I 461 W/m 18,0 km/h (3 Bft)
18.04.2013 10:10 15,3 C 19,0 C 59 % 1015,3 hPa 0,0 l/m 2 min 0 min 1,2 UV-I 473 W/m 10,3 km/h (2 Bft)
18.04.2013 10:12 15,3 C 19,0 C 57 % 1015,4 hPa 0,0 l/m 2 min 0 min 1,2 UV-I 485 W/m 25,7 km/h (4 Bft)
18.04.2013 10:14 15,3 C 19,6 C 55 % 1015,5 hPa 0,0 l/m 2 min 0 min 1,3 UV-I 490 W/m 30,9 km/h (5 Bft)
18.04.2013 10:16 15,3 C 19,6 C 55 % 1015,4 hPa 0,0 l/m 2 min 0 min 1,3 UV-I 494 W/m 18,0 km/h (3 Bft)
18.04.2013 10:18 15,3 C 19,0 C 52 % 1015,5 hPa 0,0 l/m 2 min 0 min 1,3 UV-I 497 W/m 30,9 km/h (5 Bft)
18.04.2013 10:20 15,2 C 19,0 C 53 % 1015,5 hPa 0,0 l/m 2 min 0 min 1,4 UV-I 506 W/m 23,2 km/h (4 Bft)
18.04.2013 10:22 15,2 C 19,0 C 51 % 1015,5 hPa 0,0 l/m 2 min 0 min 1,4 UV-I 513 W/m 23,2 km/h (4 Bft)
18.04.2013 10:24 15,2 C 19,0 C 50 % 1015,6 hPa 0,0 l/m 2 min 0 min 1,3 UV-I 473 W/m 23,2 km/h (4 Bft)
18.04.2013 10:26 15,2 C 19,6 C 50 % 1015,6 hPa 0,0 l/m 2 min 0 min 1,4 UV-I 517 W/m 18,0 km/h (3 Bft)
18.04.2013 10:28 15,2 C 20,1 C 50 % 1015,6 hPa 0,0 l/m 2 min 0 min 1,5 UV-I 522 W/m 20,6 km/h (4 Bft)
18.04.2013 10:30 15,2 C 19,6 C 49 % 1015,6 hPa 0,0 l/m 2 min 0 min 1,5 UV-I 524 W/m 25,7 km/h (4 Bft)
18.04.2013 10:32 15,3 C 19,6 C 51 % 1015,6 hPa 0,0 l/m 2 min 0 min 1,5 UV-I 526 W/m 15,4 km/h (3 Bft)
18.04.2013 10:34 15,3 C 19,0 C 51 % 1015,7 hPa 0,0 l/m 2 min 0 min 1,7 UV-I 543 W/m 28,3 km/h (4 Bft)
18.04.2013 10:36 15,3 C 17,9 C 51 % 1015,6 hPa 0,0 l/m 2 min 0 min 1,7 UV-I 531 W/m 28,3 km/h (4 Bft)
18.04.2013 10:38 15,4 C 17,3 C 52 % 1015,6 hPa 0,0 l/m 2 min 0 min 1,8 UV-I 536 W/m 18,0 km/h (3 Bft)
18.04.2013 10:40 15,4 C 16,8 C 51 % 1015,5 hPa 0,0 l/m 2 min 0 min 1,8 UV-I 529 W/m 18,0 km/h (3 Bft)
18.04.2013 10:42 15,4 C 16,2 C 50 % 1015,6 hPa 0,0 l/m 2 min 0 min 1,8 UV-I 533 W/m 30,9 km/h (5 Bft)
18.04.2013 10:44 15,5 C 16,8 C 50 % 1015,7 hPa 0,0 l/m 2 min 0 min 1,8 UV-I 482 W/m 25,7 km/h (4 Bft)
18.04.2013 10:46 15,4 C 17,3 C 47 % 1015,6 hPa 0,0 l/m 2 min 0 min 1,8 UV-I 550 W/m 28,3 km/h (4 Bft)
18.04.2013 10:48 15,5 C 17,9 C 48 % 1015,7 hPa 0,0 l/m 2 min 0 min 1,6 UV-I 485 W/m 36,0 km/h (5 Bft)
18.04.2013 10:50 15,5 C 18,4 C 49 % 1015,7 hPa 0,0 l/m 2 min 0 min 1,7 UV-I 490 W/m 18,0 km/h (3 Bft)
18.04.2013 10:52 15,6 C 18,4 C 48 % 1015,7 hPa 0,0 l/m 2 min 0 min 1,9 UV-I 524 W/m 18,0 km/h (3 Bft)
18.04.2013 10:54 15,6 C 19,0 C 51 % 1015,7 hPa 0,0 l/m 2 min 0 min 2,1 UV-I 452 W/m 20,6 km/h (4 Bft)
18.04.2013 10:56 15,7 C 19,0 C 51 % 1015,9 hPa 0,0 l/m 2 min 0 min 2,1 UV-I 457 W/m 30,9 km/h (5 Bft)
18.04.2013 10:58 15,7 C 18,4 C 53 % 1015,8 hPa 0,0 l/m 2 min 0 min 2,1 UV-I 492 W/m 15,4 km/h (3 Bft)
18.04.2013 11:00 15,7 C 17,3 C 51 % 1015,9 hPa 0,0 l/m 2 min 0 min 2,1 UV-I 469 W/m 25,7 km/h (4 Bft)
18.04.2013 11:02 15,8 C 17,9 C 53 % 1015,8 hPa 0,0 l/m 2 min 0 min 2,2 UV-I 499 W/m 10,3 km/h (2 Bft)
18.04.2013 11:04 15,8 C 16,8 C 51 % 1016,0 hPa 0,0 l/m 2 min 0 min 2,2 UV-I 536 W/m 20,6 km/h (4 Bft)
18.04.2013 11:06 15,8 C 16,8 C 48 % 1016,0 hPa 0,0 l/m 2 min 0 min 2,3 UV-I 570 W/m 28,3 km/h (4 Bft)
18.04.2013 11:08 15,8 C 17,3 C 48 % 1016,0 hPa 0,0 l/m 2 min 0 min 2,3 UV-I 550 W/m 23,2 km/h (4 Bft)
18.04.2013 11:10 15,8 C 17,3 C 49 % 1015,9 hPa 0,0 l/m 2 min 0 min 2,3 UV-I 561 W/m 23,2 km/h (4 Bft)
18.04.2013 11:12 15,9 C 17,3 C 50 % 1015,9 hPa 0,0 l/m 2 min 0 min 2,5 UV-I 624 W/m 20,6 km/h (4 Bft)
18.04.2013 11:14 15,9 C 16,8 C 49 % 1015,9 hPa 0,0 l/m 2 min 0 min 2,0 UV-I 575 W/m 25,7 km/h (4 Bft)
18.04.2013 11:16 15,8 C 16,2 C 49 % 1016,1 hPa 0,0 l/m 2 min 0 min 2,5 UV-I 613 W/m 28,3 km/h (4 Bft)
18.04.2013 11:18 15,9 C 16,2 C 49 % 1016,1 hPa 0,0 l/m 2 min 0 min 2,6 UV-I 633 W/m 30,9 km/h (5 Bft)
18.04.2013 11:20 15,9 C 16,2 C 49 % 1016,0 hPa 0,0 l/m 2 min 0 min 2,7 UV-I 643 W/m 18,0 km/h (3 Bft)
18.04.2013 11:22 15,9 C 16,2 C 50 % 1016,1 hPa 0,0 l/m 2 min 0 min 2,7 UV-I 645 W/m 25,7 km/h (4 Bft)
18.04.2013 11:24 15,9 C 16,2 C 50 % 1016,1 hPa 0,0 l/m 2 min 0 min 2,6 UV-I 649 W/m 18,0 km/h (3 Bft)
18.04.2013 11:26 16,0 C 16,8 C 49 % 1016,2 hPa 0,0 l/m 2 min 0 min 2,5 UV-I 538 W/m 28,3 km/h (4 Bft)
18.04.2013 11:28 16,1 C 17,3 C 48 % 1016,0 hPa 0,0 l/m 2 min 0 min 2,4 UV-I 591 W/m 25,7 km/h (4 Bft)
18.04.2013 11:30 16,1 C 16,8 C 47 % 1016,3 hPa 0,0 l/m 2 min 0 min 2,5 UV-I 591 W/m 30,9 km/h (5 Bft)
18.04.2013 11:32 16,0 C 16,2 C 45 % 1016,2 hPa 0,0 l/m 2 min 0 min 2,1 UV-I 534 W/m 23,2 km/h (4 Bft)
18.04.2013 11:34 16,0 C 15,7 C 46 % 1016,2 hPa 0,0 l/m 2 min 0 min 2,3 UV-I 462 W/m 18,0 km/h (3 Bft)
18.04.2013 11:36 16,0 C 16,2 C 47 % 1016,2 hPa 0,0 l/m 2 min 0 min 2,6 UV-I 557 W/m 18,0 km/h (3 Bft)
18.04.2013 11:38 16,0 C 16,2 C 46 % 1016,2 hPa 0,0 l/m 2 min 0 min 2,9 UV-I 661 W/m 33,5 km/h (5 Bft)
18.04.2013 11:40 16,0 C 16,2 C 47 % 1016,1 hPa 0,0 l/m 2 min 0 min 3,0 UV-I 670 W/m 30,9 km/h (5 Bft)
18.04.2013 11:42 16,1 C 16,8 C 45 % 1016,3 hPa 0,0 l/m 2 min 0 min 3,0 UV-I 661 W/m 30,9 km/h (5 Bft)
18.04.2013 11:44 16,1 C 16,8 C 45 % 1016,1 hPa 0,0 l/m 2 min 0 min 3,1 UV-I 680 W/m 28,3 km/h (4 Bft)
18.04.2013 11:46 16,2 C 16,2 C 46 % 1016,3 hPa 0,0 l/m 2 min 0 min 2,9 UV-I 638 W/m 18,0 km/h (3 Bft)
18.04.2013 11:48 16,2 C 16,8 C 45 % 1016,1 hPa 0,0 l/m 2 min 0 min 3,1 UV-I 682 W/m 18,0 km/h (3 Bft)
18.04.2013 11:50 16,2 C 17,3 C 47 % 1016,1 hPa 0,0 l/m 2 min 0 min 3,1 UV-I 679 W/m 23,2 km/h (4 Bft)
18.04.2013 11:52 16,3 C 17,9 C 47 % 1016,1 hPa 0,0 l/m 2 min 0 min 3,1 UV-I 675 W/m 23,2 km/h (4 Bft)
18.04.2013 11:54 16,3 C 18,4 C 46 % 1016,1 hPa 0,0 l/m 2 min 0 min 3,2 UV-I 686 W/m 15,4 km/h (3 Bft)
18.04.2013 11:56 16,4 C 19,0 C 45 % 1016,1 hPa 0,0 l/m 2 min 0 min 3,2 UV-I 696 W/m 25,7 km/h (4 Bft)
18.04.2013 11:58 16,4 C 18,4 C 44 % 1016,3 hPa 0,0 l/m 2 min 0 min 3,2 UV-I 696 W/m 38,6 km/h (5 Bft)
18.04.2013 12:00 16,4 C 18,4 C 44 % 1016,2 hPa 0,0 l/m 2 min 0 min 3,3 UV-I 696 W/m 20,6 km/h (4 Bft)
18.04.2013 12:02 16,4 C 19,0 C 45 % 1016,3 hPa 0,0 l/m 2 min 0 min 3,3 UV-I 701 W/m 28,3 km/h (4 Bft)
18.04.2013 12:04 16,4 C 19,0 C 45 % 1016,2 hPa 0,0 l/m 2 min 0 min 3,3 UV-I 687 W/m 23,2 km/h (4 Bft)
18.04.2013 12:06 16,4 C 19,6 C 44 % 1016,2 hPa 0,0 l/m 2 min 0 min 3,3 UV-I 708 W/m 38,6 km/h (5 Bft)
18.04.2013 12:08 16,3 C 20,1 C 45 % 1016,1 hPa 0,0 l/m 2 min 0 min 3,4 UV-I 708 W/m 20,6 km/h (4 Bft)
18.04.2013 12:10 16,3 C 19,6 C 44 % 1016,3 hPa 0,0 l/m 2 min 0 min 3,4 UV-I 687 W/m 54,1 km/h (7 Bft)
18.04.2013 12:12 16,4 C 19,6 C 45 % 1016,1 hPa 0,0 l/m 2 min 0 min 3,4 UV-I 708 W/m 23,2 km/h (4 Bft)
18.04.2013 12:14 16,4 C 18,4 C 44 % 1016,4 hPa 0,0 l/m 2 min 0 min 3,4 UV-I 700 W/m 28,3 km/h (4 Bft)
18.04.2013 12:16 16,4 C 18,4 C 45 % 1016,4 hPa 0,0 l/m 2 min 0 min 3,5 UV-I 714 W/m 33,5 km/h (5 Bft)
18.04.2013 12:18 16,4 C 19,6 C 44 % 1016,3 hPa 0,0 l/m 2 min 0 min 3,6 UV-I 717 W/m 33,5 km/h (5 Bft)
18.04.2013 12:20 16,4 C 19,6 C 44 % 1016,4 hPa 0,0 l/m 2 min 0 min 3,6 UV-I 717 W/m 30,9 km/h (5 Bft)
18.04.2013 12:22 16,4 C 19,6 C 46 % 1016,2 hPa 0,0 l/m 2 min 0 min 3,6 UV-I 715 W/m 23,2 km/h (4 Bft)
18.04.2013 12:24 16,4 C 19,6 C 47 % 1016,4 hPa 0,0 l/m 2 min 0 min 3,6 UV-I 722 W/m 28,3 km/h (4 Bft)
18.04.2013 12:26 16,5 C 19,6 C 47 % 1016,2 hPa 0,0 l/m 2 min 0 min 3,6 UV-I 714 W/m 15,4 km/h (3 Bft)
18.04.2013 12:28 16,6 C 19,0 C 46 % 1016,3 hPa 0,0 l/m 2 min 0 min 3,6 UV-I 721 W/m 38,6 km/h (5 Bft)
18.04.2013 12:30 16,6 C 19,6 C 46 % 1016,4 hPa 0,0 l/m 2 min 0 min 3,6 UV-I 728 W/m 33,5 km/h (5 Bft)
18.04.2013 12:32 16,6 C 20,1 C 46 % 1016,5 hPa 0,0 l/m 2 min 0 min 3,7 UV-I 726 W/m 28,3 km/h (4 Bft)
18.04.2013 12:34 16,6 C 19,6 C 46 % 1016,3 hPa 0,0 l/m 2 min 0 min 3,7 UV-I 724 W/m 33,5 km/h (5 Bft)
18.04.2013 12:36 16,7 C 19,6 C 48 % 1016,3 hPa 0,0 l/m 2 min 0 min 3,7 UV-I 728 W/m 12,9 km/h (3 Bft)
18.04.2013 12:38 16,8 C 20,1 C 47 % 1016,3 hPa 0,0 l/m 2 min 0 min 3,6 UV-I 719 W/m 12,9 km/h (3 Bft)
18.04.2013 12:40 16,9 C 21,2 C 46 % 1016,4 hPa 0,0 l/m 2 min 0 min 3,8 UV-I 744 W/m 20,6 km/h (4 Bft)
18.04.2013 12:42 16,9 C 21,2 C 45 % 1016,4 hPa 0,0 l/m 2 min 0 min 3,8 UV-I 740 W/m 30,9 km/h (5 Bft)
18.04.2013 12:44 16,9 C 21,2 C 47 % 1016,3 hPa 0,0 l/m 2 min 0 min 3,8 UV-I 749 W/m 15,4 km/h (3 Bft)
18.04.2013 12:46 17,1 C 21,2 C 46 % 1016,4 hPa 0,0 l/m 2 min 0 min 3,8 UV-I 744 W/m 23,2 km/h (4 Bft)
18.04.2013 12:48 17,1 C 21,8 C 45 % 1016,3 hPa 0,0 l/m 2 min 0 min 3,8 UV-I 721 W/m 20,6 km/h (4 Bft)
18.04.2013 12:50 17,1 C 21,8 C 46 % 1016,4 hPa 0,0 l/m 2 min 0 min 3,6 UV-I 744 W/m 28,3 km/h (4 Bft)
18.04.2013 12:52 17,2 C 21,8 C 45 % 1016,4 hPa 0,0 l/m 2 min 0 min 3,8 UV-I 729 W/m 23,2 km/h (4 Bft)
18.04.2013 12:54 17,2 C 21,2 C 45 % 1016,5 hPa 0,0 l/m 2 min 0 min 3,6 UV-I 696 W/m 20,6 km/h (4 Bft)
18.04.2013 12:56 17,2 C 21,2 C 45 % 1016,6 hPa 0,0 l/m 2 min 0 min 3,6 UV-I 671 W/m 23,2 km/h (4 Bft)
18.04.2013 12:58 17,2 C 21,2 C 45 % 1016,5 hPa 0,0 l/m 2 min 0 min 3,8 UV-I 705 W/m 18,0 km/h (3 Bft)
18.04.2013 13:00 17,2 C 21,2 C 45 % 1016,5 hPa 0,0 l/m 2 min 0 min 3,8 UV-I 726 W/m 20,6 km/h (4 Bft)
18.04.2013 13:02 17,1 C 21,2 C 46 % 1016,5 hPa 0,0 l/m 2 min 0 min 3,9 UV-I 737 W/m 23,2 km/h (4 Bft)
18.04.2013 13:04 17,1 C 20,7 C 46 % 1016,7 hPa 0,0 l/m 2 min 0 min 3,7 UV-I 696 W/m 23,2 km/h (4 Bft)
18.04.2013 13:06 17,1 C 20,7 C 46 % 1016,7 hPa 0,0 l/m 2 min 0 min 3,9 UV-I 735 W/m 18,0 km/h (3 Bft)
18.04.2013 13:08 17,1 C 21,2 C 45 % 1016,7 hPa 0,0 l/m 2 min 0 min 4,0 UV-I 749 W/m 20,6 km/h (4 Bft)
18.04.2013 13:10 17,2 C 21,2 C 45 % 1016,3 hPa 0,0 l/m 2 min 0 min 4,0 UV-I 756 W/m 28,3 km/h (4 Bft)
18.04.2013 13:12 17,2 C 21,2 C 47 % 1016,7 hPa 0,0 l/m 2 min 0 min 4,0 UV-I 772 W/m 20,6 km/h (4 Bft)
18.04.2013 13:14 17,3 C 20,7 C 45 % 1016,7 hPa 0,0 l/m 2 min 0 min 4,0 UV-I 786 W/m 23,2 km/h (4 Bft)
18.04.2013 13:16 17,3 C 20,7 C 45 % 1016,6 hPa 0,0 l/m 2 min 0 min 4,0 UV-I 747 W/m 36,0 km/h (5 Bft)
18.04.2013 13:18 17,3 C 20,7 C 45 % 1016,7 hPa 0,0 l/m 2 min 0 min 4,0 UV-I 751 W/m 18,0 km/h (3 Bft)
18.04.2013 13:20 17,3 C 20,1 C 46 % 1016,7 hPa 0,0 l/m 2 min 0 min 4,0 UV-I 756 W/m 23,2 km/h (4 Bft)
18.04.2013 13:22 17,4 C 20,1 C 45 % 1016,7 hPa 0,0 l/m 2 min 0 min 4,0 UV-I 791 W/m 23,2 km/h (4 Bft)
18.04.2013 13:24 17,4 C 20,7 C 46 % 1016,7 hPa 0,0 l/m 2 min 0 min 4,1 UV-I 805 W/m 20,6 km/h (4 Bft)
18.04.2013 13:26 17,5 C 20,1 C 47 % 1016,7 hPa 0,0 l/m 2 min 0 min 1,9 UV-I 805 W/m 25,7 km/h (4 Bft)
18.04.2013 13:28 17,4 C 18,4 C 45 % 1016,8 hPa 0,0 l/m 2 min 0 min 3,0 UV-I 782 W/m 36,0 km/h (5 Bft)
18.04.2013 13:30 17,3 C 19,0 C 46 % 1016,7 hPa 0,0 l/m 2 min 0 min 3,1 UV-I 802 W/m 20,6 km/h (4 Bft)
18.04.2013 13:32 17,3 C 18,4 C 47 % 1016,6 hPa 0,0 l/m 2 min 0 min 1,7 UV-I 802 W/m 23,2 km/h (4 Bft)
18.04.2013 13:34 17,2 C 17,9 C 47 % 1016,8 hPa 0,0 l/m 0 min 0 min 1,6 UV-I 123 W/m 15,4 km/h (3 Bft)
18.04.2013 13:36 17,1 C 17,3 C 48 % 1016,8 hPa 0,0 l/m 2 min 0 min 3,8 UV-I 777 W/m 25,7 km/h (4 Bft)
18.04.2013 13:38 17,1 C 17,9 C 49 % 1016,6 hPa 0,0 l/m 2 min 0 min 4,0 UV-I 772 W/m 23,2 km/h (4 Bft)
18.04.2013 13:40 17,2 C 17,9 C 49 % 1016,8 hPa 0,0 l/m 2 min 0 min 3,8 UV-I 759 W/m 28,3 km/h (4 Bft)
18.04.2013 13:42 17,2 C 17,3 C 47 % 1016,9 hPa 0,0 l/m 2 min 0 min 3,9 UV-I 766 W/m 30,9 km/h (5 Bft)
18.04.2013 13:44 17,2 C 17,3 C 47 % 1016,7 hPa 0,0 l/m 2 min 0 min 4,0 UV-I 779 W/m 28,3 km/h (4 Bft)
18.04.2013 13:46 17,2 C 17,3 C 47 % 1016,8 hPa 0,0 l/m 2 min 0 min 3,9 UV-I 738 W/m 36,0 km/h (5 Bft)
18.04.2013 13:48 17,2 C 17,3 C 48 % 1016,9 hPa 0,0 l/m 2 min 0 min 4,0 UV-I 770 W/m 25,7 km/h (4 Bft)
18.04.2013 13:50 17,2 C 17,3 C 48 % 1016,7 hPa 0,0 l/m 2 min 0 min 4,0 UV-I 782 W/m 46,3 km/h (6 Bft)
18.04.2013 13:52 17,2 C 17,3 C 47 % 1016,7 hPa 0,0 l/m 2 min 0 min 4,1 UV-I 809 W/m 38,6 km/h (5 Bft)
18.04.2013 13:54 17,1 C 16,8 C 47 % 1016,8 hPa 0,0 l/m 0 min 0 min 4,1 UV-I 200 W/m 33,5 km/h (5 Bft)
18.04.2013 13:56 17,1 C 16,8 C 47 % 1016,9 hPa 0,0 l/m 2 min 0 min 4,0 UV-I 784 W/m 33,5 km/h (5 Bft)
18.04.2013 13:58 17,1 C 17,3 C 48 % 1016,8 hPa 0,0 l/m 2 min 0 min 4,0 UV-I 763 W/m 30,9 km/h (5 Bft)
18.04.2013 14:00 17,1 C 17,3 C 47 % 1016,8 hPa 0,0 l/m 2 min 0 min 4,0 UV-I 780 W/m 36,0 km/h (5 Bft)
18.04.2013 14:02 17,2 C 17,3 C 47 % 1016,8 hPa 0,0 l/m 2 min 0 min 4,0 UV-I 784 W/m 36,0 km/h (5 Bft)
18.04.2013 14:04 17,2 C 17,9 C 48 % 1016,9 hPa 0,0 l/m 2 min 0 min 1,6 UV-I 795 W/m 18,0 km/h (3 Bft)
18.04.2013 14:06 17,2 C 16,8 C 48 % 1017,0 hPa 0,0 l/m 2 min 0 min 2,5 UV-I 795 W/m 30,9 km/h (5 Bft)
18.04.2013 14:08 17,1 C 16,8 C 47 % 1016,9 hPa 0,0 l/m 2 min 0 min 1,7 UV-I 795 W/m 28,3 km/h (4 Bft)
18.04.2013 14:10 17,0 C 16,2 C 48 % 1016,9 hPa 0,0 l/m 0 min 0 min 4,1 UV-I 213 W/m 38,6 km/h (5 Bft)
18.04.2013 14:12 16,9 C 17,3 C 49 % 1016,8 hPa 0,0 l/m 2 min 0 min 4,0 UV-I 824 W/m 28,3 km/h (4 Bft)
18.04.2013 14:14 17,0 C 17,3 C 48 % 1016,9 hPa 0,0 l/m 2 min 0 min 4,0 UV-I 812 W/m 28,3 km/h (4 Bft)
18.04.2013 14:16 17,1 C 17,3 C 48 % 1017,0 hPa 0,0 l/m 2 min 0 min 3,8 UV-I 761 W/m 30,9 km/h (5 Bft)
18.04.2013 14:18 17,2 C 17,9 C 48 % 1017,0 hPa 0,0 l/m 2 min 0 min 3,9 UV-I 810 W/m 20,6 km/h (4 Bft)
18.04.2013 14:20 17,2 C 17,3 C 48 % 1017,1 hPa 0,0 l/m 2 min 0 min 3,9 UV-I 819 W/m 30,9 km/h (5 Bft)
18.04.2013 14:22 17,3 C 17,9 C 47 % 1017,1 hPa 0,0 l/m 2 min 0 min 3,9 UV-I 842 W/m 28,3 km/h (4 Bft)
18.04.2013 14:24 17,4 C 17,9 C 47 % 1017,1 hPa 0,0 l/m 2 min 0 min 1,6 UV-I 861 W/m 25,7 km/h (4 Bft)
18.04.2013 14:26 17,3 C 17,3 C 47 % 1016,9 hPa 0,0 l/m 2 min 0 min 4,0 UV-I 861 W/m 33,5 km/h (5 Bft)
18.04.2013 14:28 17,3 C 16,8 C 47 % 1016,8 hPa 0,0 l/m 0 min 0 min 3,9 UV-I 251 W/m 25,7 km/h (4 Bft)
18.04.2013 14:30 17,2 C 16,8 C 47 % 1017,1 hPa 0,0 l/m 0 min 0 min 3,3 UV-I 306 W/m 25,7 km/h (4 Bft)
18.04.2013 14:32 17,2 C 16,8 C 48 % 1017,0 hPa 0,0 l/m 0 min 0 min 1,3 UV-I 176 W/m 18,0 km/h (3 Bft)
18.04.2013 14:34 17,1 C 16,8 C 49 % 1016,9 hPa 0,0 l/m 0 min 0 min 1,3 UV-I 186 W/m 12,9 km/h (3 Bft)
18.04.2013 14:36 17,0 C 16,8 C 49 % 1016,9 hPa 0,0 l/m 2 min 0 min 2,2 UV-I 849 W/m 20,6 km/h (4 Bft)
18.04.2013 14:38 17,0 C 16,8 C 48 % 1017,1 hPa 0,0 l/m 2 min 0 min 3,7 UV-I 724 W/m 41,2 km/h (6 Bft)
18.04.2013 14:40 16,9 C 16,2 C 47 % 1017,1 hPa 0,0 l/m 2 min 0 min 1,3 UV-I 724 W/m 30,9 km/h (5 Bft)
18.04.2013 14:42 16,7 C 16,2 C 47 % 1017,1 hPa 0,0 l/m 0 min 0 min 2,0 UV-I 257 W/m 23,2 km/h (4 Bft)
18.04.2013 14:44 16,6 C 15,7 C 47 % 1016,9 hPa 0,0 l/m 0 min 0 min 1,4 UV-I 172 W/m 23,2 km/h (4 Bft)
18.04.2013 14:46 16,6 C 15,7 C 48 % 1017,1 hPa 0,0 l/m 0 min 0 min 1,7 UV-I 163 W/m 20,6 km/h (4 Bft)
18.04.2013 14:48 16,5 C 16,2 C 49 % 1017,0 hPa 0,0 l/m 0 min 0 min 3,0 UV-I 176 W/m 12,9 km/h (3 Bft)
18.04.2013 14:50 16,5 C 16,2 C 49 % 1017,0 hPa 0,0 l/m 0 min 0 min 2,1 UV-I 251 W/m 28,3 km/h (4 Bft)
18.04.2013 14:52 16,5 C 16,2 C 49 % 1017,1 hPa 0,0 l/m 2 min 0 min 3,5 UV-I 775 W/m 18,0 km/h (3 Bft)
18.04.2013 14:54 16,6 C 16,8 C 48 % 1017,1 hPa 0,0 l/m 2 min 0 min 3,1 UV-I 763 W/m 36,0 km/h (5 Bft)
18.04.2013 14:56 16,7 C 16,8 C 48 % 1016,9 hPa 0,0 l/m 2 min 0 min 3,4 UV-I 761 W/m 41,2 km/h (6 Bft)
18.04.2013 14:58 16,8 C 17,3 C 48 % 1016,7 hPa 0,0 l/m 2 min 0 min 3,4 UV-I 761 W/m 28,3 km/h (4 Bft)
18.04.2013 15:00 17,0 C 17,3 C 48 % 1016,7 hPa 0,0 l/m 2 min 0 min 3,4 UV-I 759 W/m 15,4 km/h (3 Bft)
18.04.2013 15:02 17,2 C 17,9 C 48 % 1016,7 hPa 0,0 l/m 2 min 0 min 3,4 UV-I 763 W/m 28,3 km/h (4 Bft)
18.04.2013 15:04 17,3 C 17,9 C 46 % 1016,9 hPa 0,0 l/m 2 min 0 min 3,4 UV-I 793 W/m 25,7 km/h (4 Bft)
18.04.2013 15:06 17,4 C 17,9 C 46 % 1016,8 hPa 0,0 l/m 2 min 0 min 3,3 UV-I 770 W/m 18,0 km/h (3 Bft)
18.04.2013 15:08 17,6 C 17,9 C 45 % 1016,7 hPa 0,0 l/m 2 min 0 min 3,3 UV-I 701 W/m 20,6 km/h (4 Bft)
18.04.2013 15:10 17,7 C 17,9 C 45 % 1016,9 hPa 0,0 l/m 0 min 0 min 1,7 UV-I 229 W/m 23,2 km/h (4 Bft)
18.04.2013 15:12 17,7 C 17,9 C 45 % 1016,8 hPa 0,0 l/m 0 min 0 min 3,3 UV-I 229 W/m 18,0 km/h (3 Bft)
18.04.2013 15:14 17,7 C 17,9 C 45 % 1016,8 hPa 0,0 l/m 2 min 0 min 3,2 UV-I 775 W/m 41,2 km/h (6 Bft)
18.04.2013 15:16 17,7 C 17,3 C 45 % 1016,7 hPa 0,0 l/m 2 min 0 min 1,1 UV-I 775 W/m 30,9 km/h (5 Bft)
18.04.2013 15:18 17,4 C 16,2 C 46 % 1016,9 hPa 0,0 l/m 0 min 0 min 1,1 UV-I 151 W/m 25,7 km/h (4 Bft)
18.04.2013 15:20 17,3 C 16,8 C 46 % 1016,8 hPa 0,0 l/m 2 min 0 min 3,1 UV-I 780 W/m 30,9 km/h (5 Bft)
18.04.2013 15:22 17,3 C 16,8 C 47 % 1017,0 hPa 0,0 l/m 2 min 0 min 3,0 UV-I 738 W/m 28,3 km/h (4 Bft)
18.04.2013 15:24 17,3 C 16,8 C 46 % 1016,9 hPa 0,0 l/m 2 min 0 min 1,4 UV-I 738 W/m 25,7 km/h (4 Bft)
18.04.2013 15:26 17,3 C 16,8 C 46 % 1016,9 hPa 0,0 l/m 0 min 0 min 1,1 UV-I 132 W/m 23,2 km/h (4 Bft)
18.04.2013 15:28 17,2 C 16,8 C 47 % 1016,8 hPa 0,0 l/m 0 min 0 min 3,0 UV-I 155 W/m 20,6 km/h (4 Bft)
18.04.2013 15:30 17,2 C 17,3 C 48 % 1016,9 hPa 0,0 l/m 2 min 0 min 3,0 UV-I 782 W/m 15,4 km/h (3 Bft)
18.04.2013 15:32 17,3 C 17,9 C 49 % 1016,8 hPa 0,0 l/m 2 min 0 min 2,9 UV-I 752 W/m 18,0 km/h (3 Bft)
18.04.2013 15:34 17,5 C 18,4 C 48 % 1016,8 hPa 0,0 l/m 2 min 0 min 2,9 UV-I 749 W/m 15,4 km/h (3 Bft)
18.04.2013 15:36 17,7 C 18,4 C 45 % 1017,1 hPa 0,0 l/m 2 min 0 min 2,8 UV-I 726 W/m 20,6 km/h (4 Bft)
18.04.2013 15:38 17,8 C 18,4 C 46 % 1016,8 hPa 0,0 l/m 2 min 0 min 2,6 UV-I 733 W/m 28,3 km/h (4 Bft)
18.04.2013 15:40 17,8 C 17,9 C 44 % 1017,0 hPa 0,0 l/m 2 min 0 min 2,3 UV-I 733 W/m 41,2 km/h (6 Bft)
18.04.2013 15:42 17,8 C 17,9 C 45 % 1016,9 hPa 0,0 l/m 2 min 0 min 2,5 UV-I 719 W/m 25,7 km/h (4 Bft)
18.04.2013 15:44 17,7 C 17,3 C 45 % 1017,0 hPa 0,0 l/m 2 min 0 min 1,2 UV-I 703 W/m 33,5 km/h (5 Bft)
18.04.2013 15:46 17,7 C 16,8 C 45 % 1016,9 hPa 0,0 l/m 0 min 0 min 1,5 UV-I 207 W/m 23,2 km/h (4 Bft)
18.04.2013 15:48 17,6 C 17,3 C 46 % 1016,8 hPa 0,0 l/m 0 min 0 min 2,7 UV-I 207 W/m 30,9 km/h (5 Bft)
18.04.2013 15:50 17,6 C 17,9 C 48 % 1016,7 hPa 0,0 l/m 2 min 0 min 2,6 UV-I 728 W/m 12,9 km/h (3 Bft)
18.04.2013 15:52 17,7 C 17,9 C 46 % 1016,9 hPa 0,0 l/m 2 min 0 min 1,2 UV-I 735 W/m 25,7 km/h (4 Bft)
18.04.2013 15:54 17,6 C 17,3 C 44 % 1016,9 hPa 0,0 l/m 0 min 0 min 2,4 UV-I 169 W/m 46,3 km/h (6 Bft)
18.04.2013 15:56 17,5 C 16,8 C 45 % 1016,8 hPa 0,0 l/m 0 min 0 min 2,4 UV-I 179 W/m 23,2 km/h (4 Bft)
18.04.2013 15:58 17,4 C 17,3 C 47 % 1016,8 hPa 0,0 l/m 0 min 0 min 2,4 UV-I 179 W/m 25,7 km/h (4 Bft)
18.04.2013 16:00 17,4 C 17,3 C 46 % 1016,7 hPa 0,0 l/m 2 min 0 min 2,3 UV-I 670 W/m 25,7 km/h (4 Bft)
18.04.2013 16:02 17,4 C 17,3 C 46 % 1017,2 hPa 0,0 l/m 2 min 0 min 1,3 UV-I 640 W/m 25,7 km/h (4 Bft)
18.04.2013 16:04 17,4 C 17,3 C 46 % 1016,8 hPa 0,0 l/m 2 min 0 min 2,0 UV-I 640 W/m 25,7 km/h (4 Bft)
18.04.2013 16:06 17,3 C 17,3 C 45 % 1016,7 hPa 0,0 l/m 2 min 0 min 1,6 UV-I 640 W/m 28,3 km/h (4 Bft)
18.04.2013 16:08 17,3 C 16,8 C 45 % 1016,7 hPa 0,0 l/m 2 min 0 min 2,1 UV-I 638 W/m 30,9 km/h (5 Bft)
18.04.2013 16:10 17,3 C 17,3 C 46 % 1016,6 hPa 0,0 l/m 2 min 0 min 2,1 UV-I 654 W/m 23,2 km/h (4 Bft)
18.04.2013 16:12 17,4 C 17,9 C 47 % 1016,6 hPa 0,0 l/m 2 min 0 min 1,8 UV-I 654 W/m 20,6 km/h (4 Bft)
18.04.2013 16:14 17,4 C 17,9 C 45 % 1016,7 hPa 0,0 l/m 2 min 0 min 2,0 UV-I 647 W/m 28,3 km/h (4 Bft)
18.04.2013 16:16 17,5 C 17,9 C 45 % 1016,7 hPa 0,0 l/m 2 min 0 min 2,0 UV-I 654 W/m 20,6 km/h (4 Bft)
18.04.2013 16:18 17,5 C 17,9 C 45 % 1016,6 hPa 0,0 l/m 2 min 0 min 2,0 UV-I 656 W/m 18,0 km/h (3 Bft)
18.04.2013 16:20 17,6 C 17,9 C 45 % 1016,7 hPa 0,0 l/m 2 min 0 min 1,9 UV-I 657 W/m 33,5 km/h (5 Bft)
18.04.2013 16:22 17,6 C 18,4 C 45 % 1016,8 hPa 0,0 l/m 2 min 0 min 1,7 UV-I 631 W/m 30,9 km/h (5 Bft)
18.04.2013 16:24 17,6 C 19,6 C 45 % 1016,6 hPa 0,0 l/m 2 min 0 min 1,9 UV-I 647 W/m 20,6 km/h (4 Bft)
18.04.2013 16:26 17,7 C 18,4 C 45 % 1016,7 hPa 0,0 l/m 0 min 0 min 0,9 UV-I 141 W/m 33,5 km/h (5 Bft)
18.04.2013 16:28 17,6 C 19,0 C 45 % 1016,8 hPa 0,0 l/m 0 min 0 min 1,7 UV-I 141 W/m 20,6 km/h (4 Bft)
18.04.2013 16:30 17,6 C 19,6 C 45 % 1016,9 hPa 0,0 l/m 2 min 0 min 1,7 UV-I 592 W/m 28,3 km/h (4 Bft)
18.04.2013 16:32 17,6 C 19,6 C 45 % 1016,5 hPa 0,0 l/m 2 min 0 min 1,6 UV-I 559 W/m 20,6 km/h (4 Bft)
18.04.2013 16:34 17,6 C 19,0 C 44 % 1016,9 hPa 0,0 l/m 2 min 0 min 1,7 UV-I 610 W/m 20,6 km/h (4 Bft)
18.04.2013 16:36 17,7 C 18,4 C 44 % 1016,7 hPa 0,0 l/m 2 min 0 min 1,6 UV-I 617 W/m 23,2 km/h (4 Bft)
18.04.2013 16:38 17,7 C 19,0 C 45 % 1016,9 hPa 0,0 l/m 2 min 0 min 1,6 UV-I 629 W/m 33,5 km/h (5 Bft)
18.04.2013 16:40 17,7 C 18,4 C 44 % 1016,7 hPa 0,0 l/m 2 min 0 min 1,0 UV-I 619 W/m 36,0 km/h (5 Bft)
18.04.2013 16:42 17,7 C 17,9 C 45 % 1016,7 hPa 0,0 l/m 0 min 0 min 1,4 UV-I 151 W/m 28,3 km/h (4 Bft)
18.04.2013 16:44 17,7 C 17,9 C 45 % 1016,6 hPa 0,0 l/m 2 min 0 min 1,5 UV-I 636 W/m 20,6 km/h (4 Bft)
18.04.2013 16:46 17,8 C 18,4 C 45 % 1016,8 hPa 0,0 l/m 2 min 0 min 1,5 UV-I 635 W/m 36,0 km/h (5 Bft)
18.04.2013 16:48 17,7 C 17,3 C 42 % 1016,7 hPa 0,0 l/m 0 min 0 min 0,5 UV-I 113 W/m 28,3 km/h (4 Bft)
18.04.2013 16:50 17,6 C 16,8 C 42 % 1016,6 hPa 0,0 l/m 0 min 0 min 0,5 UV-I 109 W/m 30,9 km/h (5 Bft)
18.04.2013 16:52 17,4 C 16,2 C 44 % 1016,8 hPa 0,0 l/m 0 min 0 min 1,3 UV-I 130 W/m 30,9 km/h (5 Bft)
18.04.2013 16:54 17,3 C 16,8 C 44 % 1016,6 hPa 0,0 l/m 2 min 0 min 1,3 UV-I 606 W/m 12,9 km/h (3 Bft)
18.04.2013 16:56 17,3 C 17,3 C 44 % 1016,7 hPa 0,0 l/m 2 min 0 min 1,3 UV-I 585 W/m 23,2 km/h (4 Bft)
18.04.2013 16:58 17,3 C 17,3 C 45 % 1016,5 hPa 0,0 l/m 2 min 0 min 1,2 UV-I 566 W/m 15,4 km/h (3 Bft)
18.04.2013 17:00 17,4 C 17,3 C 44 % 1016,7 hPa 0,0 l/m 2 min 0 min 0,7 UV-I 570 W/m 28,3 km/h (4 Bft)
18.04.2013 17:02 17,3 C 16,8 C 43 % 1016,6 hPa 0,0 l/m 0 min 0 min 0,0 UV-I 274 W/m 33,5 km/h (5 Bft)
18.04.2013 17:04 17,3 C 16,8 C 43 % 1016,7 hPa 0,0 l/m 2 min 0 min 1,0 UV-I 534 W/m 18,0 km/h (3 Bft)
18.04.2013 17:06 17,3 C 16,8 C 44 % 1016,6 hPa 0,0 l/m 0 min 0 min 1,0 UV-I 162 W/m 28,3 km/h (4 Bft)
18.04.2013 17:08 17,2 C 16,8 C 46 % 1016,7 hPa 0,0 l/m 0 min 0 min 0,0 UV-I 142 W/m 15,4 km/h (3 Bft)
18.04.2013 17:10 17,2 C 16,8 C 46 % 1016,6 hPa 0,0 l/m 2 min 0 min 0,8 UV-I 506 W/m 18,0 km/h (3 Bft)
18.04.2013 17:12 17,2 C 16,8 C 46 % 1016,7 hPa 0,0 l/m 2 min 0 min 0,9 UV-I 487 W/m 23,2 km/h (4 Bft)
18.04.2013 17:14 17,3 C 16,8 C 45 % 1016,7 hPa 0,0 l/m 2 min 0 min 0,8 UV-I 418 W/m 20,6 km/h (4 Bft)
18.04.2013 17:16 17,3 C 17,3 C 45 % 1016,7 hPa 0,0 l/m 2 min 0 min 0,9 UV-I 513 W/m 12,9 km/h (3 Bft)
18.04.2013 17:18 17,4 C 17,3 C 45 % 1016,9 hPa 0,0 l/m 2 min 0 min 0,9 UV-I 499 W/m 25,7 km/h (4 Bft)
18.04.2013 17:20 17,5 C 17,3 C 45 % 1016,8 hPa 0,0 l/m 2 min 0 min 0,8 UV-I 478 W/m 30,9 km/h (5 Bft)
18.04.2013 17:22 17,6 C 17,3 C 44 % 1016,7 hPa 0,0 l/m 0 min 0 min 0,0 UV-I 113 W/m 28,3 km/h (4 Bft)
18.04.2013 17:24 17,5 C 16,8 C 44 % 1016,7 hPa 0,0 l/m 2 min 0 min 0,6 UV-I 394 W/m 38,6 km/h (5 Bft)
18.04.2013 17:26 17,5 C 16,8 C 44 % 1016,7 hPa 0,0 l/m 2 min 0 min 0,6 UV-I 387 W/m 33,5 km/h (5 Bft)
18.04.2013 17:28 17,4 C 16,8 C 44 % 1016,9 hPa 0,0 l/m 2 min 0 min 0,6 UV-I 454 W/m 20,6 km/h (4 Bft)
18.04.2013 17:30 17,4 C 16,8 C 45 % 1016,7 hPa 0,0 l/m 2 min 0 min 0,6 UV-I 483 W/m 18,0 km/h (3 Bft)
18.04.2013 17:32 17,4 C 17,3 C 44 % 1016,8 hPa 0,0 l/m 2 min 0 min 0,6 UV-I 436 W/m 38,6 km/h (5 Bft)
18.04.2013 17:34 17,4 C 16,8 C 45 % 1016,8 hPa 0,0 l/m 2 min 0 min 0,6 UV-I 410 W/m 28,3 km/h (4 Bft)
18.04.2013 17:36 17,4 C 16,8 C 44 % 1016,8 hPa 0,0 l/m 2 min 0 min 0,6 UV-I 388 W/m 33,5 km/h (5 Bft)
18.04.2013 17:38 17,4 C 16,8 C 44 % 1016,8 hPa 0,0 l/m 2 min 0 min 0,0 UV-I 390 W/m 23,2 km/h (4 Bft)
18.04.2013 17:40 17,4 C 16,8 C 44 % 1016,8 hPa 0,0 l/m 2 min 0 min 0,0 UV-I 294 W/m 23,2 km/h (4 Bft)
18.04.2013 17:42 17,3 C 16,8 C 44 % 1016,7 hPa 0,0 l/m 0 min 0 min 0,0 UV-I 139 W/m 15,4 km/h (3 Bft)
18.04.2013 17:44 17,3 C 16,2 C 44 % 1016,8 hPa 0,0 l/m 0 min 0 min 0,0 UV-I 118 W/m 28,3 km/h (4 Bft)
18.04.2013 17:46 17,1 C 15,7 C 44 % 1017,0 hPa 0,0 l/m 2 min 0 min 0,0 UV-I 236 W/m 23,2 km/h (4 Bft)
18.04.2013 17:48 17,0 C 15,7 C 45 % 1016,8 hPa 0,0 l/m 2 min 0 min 0,0 UV-I 353 W/m 18,0 km/h (3 Bft)
18.04.2013 17:50 16,9 C 15,7 C 45 % 1016,9 hPa 0,0 l/m 2 min 0 min 0,0 UV-I 353 W/m 25,7 km/h (4 Bft)
18.04.2013 17:52 16,8 C 15,7 C 45 % 1016,8 hPa 0,0 l/m 0 min 0 min 0,0 UV-I 137 W/m 15,4 km/h (3 Bft)
18.04.2013 17:54 16,8 C 15,7 C 45 % 1017,0 hPa 0,0 l/m 2 min 0 min 0,0 UV-I 315 W/m 30,9 km/h (5 Bft)
18.04.2013 17:56 16,7 C 15,7 C 45 % 1016,9 hPa 0,0 l/m 0 min 0 min 0,0 UV-I 200 W/m 30,9 km/h (5 Bft)
18.04.2013 17:58 16,7 C 15,7 C 45 % 1016,9 hPa 0,0 l/m 0 min 0 min 0,0 UV-I 123 W/m 20,6 km/h (4 Bft)
18.04.2013 18:00 16,6 C 15,7 C 45 % 1017,1 hPa 0,0 l/m 0 min 0 min 0,0 UV-I 107 W/m 23,2 km/h (4 Bft)
18.04.2013 18:02 16,6 C 15,7 C 45 % 1016,9 hPa 0,0 l/m 2 min 0 min 0,0 UV-I 250 W/m 23,2 km/h (4 Bft)
18.04.2013 18:04 16,6 C 15,7 C 45 % 1017,0 hPa 0,0 l/m 2 min 0 min 0,0 UV-I 271 W/m 25,7 km/h (4 Bft)
18.04.2013 18:06 16,5 C 15,7 C 45 % 1016,8 hPa 0,0 l/m 0 min 0 min 0,0 UV-I 148 W/m 18,0 km/h (3 Bft)
18.04.2013 18:08 16,4 C 15,7 C 45 % 1016,9 hPa 0,0 l/m 2 min 0 min 0,0 UV-I 211 W/m 20,6 km/h (4 Bft)
18.04.2013 18:10 16,4 C 15,7 C 46 % 1016,9 hPa 0,0 l/m 2 min 0 min 0,0 UV-I 243 W/m 23,2 km/h (4 Bft)
18.04.2013 18:12 16,4 C 15,7 C 46 % 1016,9 hPa 0,0 l/m 2 min 0 min 0,0 UV-I 221 W/m 23,2 km/h (4 Bft)
18.04.2013 18:14 16,5 C 15,7 C 46 % 1016,9 hPa 0,0 l/m 2 min 0 min 0,0 UV-I 285 W/m 18,0 km/h (3 Bft)
18.04.2013 18:16 16,6 C 15,7 C 46 % 1016,8 hPa 0,0 l/m 2 min 0 min 0,0 UV-I 311 W/m 20,6 km/h (4 Bft)
18.04.2013 18:18 16,6 C 16,2 C 46 % 1016,8 hPa 0,0 l/m 2 min 0 min 0,0 UV-I 278 W/m 15,4 km/h (3 Bft)
18.04.2013 18:20 16,6 C 15,7 C 46 % 1016,9 hPa 0,0 l/m 2 min 0 min 0,0 UV-I 216 W/m 33,5 km/h (5 Bft)
18.04.2013 18:22 16,7 C 15,7 C 45 % 1016,9 hPa 0,0 l/m 0 min 0 min 0,0 UV-I 160 W/m 25,7 km/h (4 Bft)
18.04.2013 18:24 16,7 C 15,7 C 46 % 1016,8 hPa 0,0 l/m 2 min 0 min 0,0 UV-I 243 W/m 10,3 km/h (2 Bft)
18.04.2013 18:26 16,7 C 16,2 C 47 % 1016,8 hPa 0,0 l/m 2 min 0 min 0,0 UV-I 183 W/m 10,3 km/h (2 Bft)
18.04.2013 18:28 16,8 C 16,2 C 46 % 1016,8 hPa 0,0 l/m 2 min 0 min 0,0 UV-I 202 W/m 28,3 km/h (4 Bft)
18.04.2013 18:30 16,8 C 16,2 C 46 % 1016,9 hPa 0,0 l/m 2 min 0 min 0,0 UV-I 246 W/m 20,6 km/h (4 Bft)
18.04.2013 18:32 16,8 C 15,7 C 46 % 1016,8 hPa 0,0 l/m 2 min 0 min 0,0 UV-I 292 W/m 28,3 km/h (4 Bft)
18.04.2013 18:34 16,8 C 15,7 C 45 % 1016,8 hPa 0,0 l/m 2 min 0 min 0,0 UV-I 236 W/m 20,6 km/h (4 Bft)
18.04.2013 18:36 16,8 C 15,7 C 45 % 1016,9 hPa 0,0 l/m 2 min 0 min 0,0 UV-I 209 W/m 18,0 km/h (3 Bft)
18.04.2013 18:38 16,7 C 15,7 C 45 % 1016,9 hPa 0,0 l/m 0 min 0 min 0,0 UV-I 100 W/m 20,6 km/h (4 Bft)
18.04.2013 18:40 16,7 C 15,7 C 45 % 1016,9 hPa 0,0 l/m 2 min 0 min 0,0 UV-I 162 W/m 15,4 km/h (3 Bft)
18.04.2013 18:42 16,6 C 15,7 C 45 % 1016,8 hPa 0,0 l/m 2 min 0 min 0,0 UV-I 190 W/m 28,3 km/h (4 Bft)
18.04.2013 18:44 16,6 C 15,7 C 44 % 1017,0 hPa 0,0 l/m 2 min 0 min 0,0 UV-I 158 W/m 30,9 km/h (5 Bft)
18.04.2013 18:46 16,5 C 15,7 C 45 % 1016,9 hPa 0,0 l/m 0 min 0 min 0,0 UV-I 109 W/m 20,6 km/h (4 Bft)
18.04.2013 18:48 16,5 C 15,7 C 44 % 1017,0 hPa 0,0 l/m 0 min 0 min 0,0 UV-I 111 W/m 18,0 km/h (3 Bft)
18.04.2013 18:50 16,4 C 15,1 C 45 % 1017,0 hPa 0,0 l/m 0 min 0 min 0,0 UV-I 142 W/m 23,2 km/h (4 Bft)
18.04.2013 18:52 16,4 C 15,1 C 45 % 1016,9 hPa 0,0 l/m 0 min 0 min 0,0 UV-I 142 W/m 18,0 km/h (3 Bft)
18.04.2013 18:54 16,4 C 15,1 C 45 % 1016,9 hPa 0,0 l/m 2 min 0 min 0,0 UV-I 148 W/m 10,3 km/h (2 Bft)
18.04.2013 18:56 16,4 C 15,1 C 45 % 1017,0 hPa 0,0 l/m 0 min 0 min 0,0 UV-I 56 W/m 25,7 km/h (4 Bft)
18.04.2013 18:58 16,3 C 14,6 C 45 % 1017,0 hPa 0,0 l/m 0 min 0 min 0,0 UV-I 56 W/m 20,6 km/h (4 Bft)
18.04.2013 19:00 16,2 C 14,6 C 46 % 1016,9 hPa 0,0 l/m 0 min 0 min 0,0 UV-I 54 W/m 20,6 km/h (4 Bft)
18.04.2013 19:02 16,1 C 14,6 C 46 % 1016,9 hPa 0,0 l/m 0 min 0 min 0,0 UV-I 56 W/m 12,9 km/h (3 Bft)
18.04.2013 19:04 15,9 C 14,6 C 46 % 1016,9 hPa 0,0 l/m 2 min 0 min 0,0 UV-I 141 W/m 20,6 km/h (4 Bft)
18.04.2013 19:06 15,9 C 14,6 C 46 % 1016,9 hPa 0,0 l/m 2 min 0 min 0,0 UV-I 162 W/m 23,2 km/h (4 Bft)
18.04.2013 19:08 15,9 C 14,6 C 47 % 1016,9 hPa 0,0 l/m 0 min 0 min 0,0 UV-I 91 W/m 10,3 km/h (2 Bft)
18.04.2013 19:10 15,8 C 14,6 C 47 % 1016,9 hPa 0,0 l/m 0 min 0 min 0,0 UV-I 49 W/m 15,4 km/h (3 Bft)
18.04.2013 19:12 15,8 C 14,6 C 47 % 1016,9 hPa 0,0 l/m 0 min 0 min 0,0 UV-I 47 W/m 18,0 km/h (3 Bft)
18.04.2013 19:14 15,7 C 14,0 C 47 % 1016,9 hPa 0,0 l/m 0 min 0 min 0,0 UV-I 67 W/m 25,7 km/h (4 Bft)
18.04.2013 19:16 15,7 C 14,0 C 47 % 1016,9 hPa 0,0 l/m 0 min 0 min 0,0 UV-I 44 W/m 25,7 km/h (4 Bft)
18.04.2013 19:18 15,6 C 14,0 C 48 % 1016,9 hPa 0,0 l/m 0 min 0 min 0,0 UV-I 49 W/m 20,6 km/h (4 Bft)
18.04.2013 19:20 15,6 C 14,0 C 48 % 1017,0 hPa 0,0 l/m 0 min 0 min 0,0 UV-I 63 W/m 15,4 km/h (3 Bft)
18.04.2013 19:22 15,5 C 14,0 C 49 % 1017,0 hPa 0,0 l/m 0 min 0 min 0,0 UV-I 49 W/m 15,4 km/h (3 Bft)
18.04.2013 19:24 15,4 C 14,0 C 49 % 1017,0 hPa 0,0 l/m 0 min 0 min 0,0 UV-I 47 W/m 12,9 km/h (3 Bft)
18.04.2013 19:26 15,4 C 14,0 C 49 % 1017,0 hPa 0,0 l/m 0 min 0 min 0,0 UV-I 79 W/m 18,0 km/h (3 Bft)
18.04.2013 19:28 15,4 C 14,0 C 49 % 1017,0 hPa 0,0 l/m 0 min 0 min 0,0 UV-I 72 W/m 12,9 km/h (3 Bft)
18.04.2013 19:30 15,4 C 14,0 C 49 % 1017,1 hPa 0,0 l/m 0 min 0 min 0,0 UV-I 53 W/m 12,9 km/h (3 Bft)
18.04.2013 19:32 15,3 C 14,0 C 50 % 1017,1 hPa 0,0 l/m 0 min 0 min 0,0 UV-I 47 W/m 12,9 km/h (3 Bft)
18.04.2013 19:34 15,3 C 14,0 C 50 % 1017,1 hPa 0,0 l/m 0 min 0 min 0,0 UV-I 44 W/m 10,3 km/h (2 Bft)
18.04.2013 19:36 15,3 C 14,0 C 50 % 1017,1 hPa 0,0 l/m 0 min 0 min 0,0 UV-I 44 W/m 18,0 km/h (3 Bft)
18.04.2013 19:38 15,2 C 14,0 C 49 % 1017,1 hPa 0,0 l/m 0 min 0 min 0,0 UV-I 39 W/m 12,9 km/h (3 Bft)
18.04.2013 19:40 15,2 C 14,0 C 48 % 1017,2 hPa 0,0 l/m 0 min 0 min 0,0 UV-I 35 W/m 18,0 km/h (3 Bft)
18.04.2013 19:42 15,2 C 13,4 C 48 % 1017,2 hPa 0,0 l/m 0 min 0 min 0,0 UV-I 35 W/m 12,9 km/h (3 Bft)
18.04.2013 19:44 15,1 C 13,4 C 49 % 1017,2 hPa 0,0 l/m 0 min 0 min 0,0 UV-I 30 W/m 15,4 km/h (3 Bft)
18.04.2013 19:46 15,1 C 13,4 C 49 % 1017,2 hPa 0,0 l/m 0 min 0 min 0,0 UV-I 26 W/m 20,6 km/h (4 Bft)
18.04.2013 19:48 15,0 C 13,4 C 49 % 1017,1 hPa 0,0 l/m 0 min 0 min 0,0 UV-I 28 W/m 20,6 km/h (4 Bft)
18.04.2013 19:50 15,0 C 13,4 C 49 % 1017,2 hPa 0,0 l/m 0 min 0 min 0,0 UV-I 28 W/m 12,9 km/h (3 Bft)
18.04.2013 19:52 15,0 C 13,4 C 49 % 1017,2 hPa 0,0 l/m 0 min 0 min 0,0 UV-I 30 W/m 18,0 km/h (3 Bft)
18.04.2013 19:54 15,0 C 13,4 C 48 % 1017,2 hPa 0,0 l/m 0 min 0 min 0,0 UV-I 30 W/m 25,7 km/h (4 Bft)
18.04.2013 19:56 15,0 C 13,4 C 49 % 1017,2 hPa 0,0 l/m 0 min 0 min 0,0 UV-I 28 W/m 15,4 km/h (3 Bft)
18.04.2013 19:58 15,0 C 13,4 C 49 % 1017,2 hPa 0,0 l/m 0 min 0 min 0,0 UV-I 25 W/m 7,7 km/h (2 Bft)
18.04.2013 20:00 14,9 C 13,4 C 49 % 1017,2 hPa 0,0 l/m 0 min 0 min 0,0 UV-I 26 W/m 12,9 km/h (3 Bft)
18.04.2013 20:02 14,9 C 12,9 C 48 % 1017,2 hPa 0,0 l/m 0 min 0 min 0,0 UV-I 25 W/m 12,9 km/h (3 Bft)
18.04.2013 20:04 14,8 C 13,4 C 48 % 1017,2 hPa 0,0 l/m 0 min 0 min 0,0 UV-I 25 W/m 18,0 km/h (3 Bft)
18.04.2013 20:06 14,8 C 12,9 C 48 % 1017,3 hPa 0,0 l/m 0 min 0 min 0,0 UV-I 25 W/m 18,0 km/h (3 Bft)
18.04.2013 20:08 14,8 C 12,9 C 48 % 1017,3 hPa 0,0 l/m 0 min 0 min 0,0 UV-I 26 W/m 18,0 km/h (3 Bft)
18.04.2013 20:10 14,8 C 12,9 C 48 % 1017,4 hPa 0,0 l/m 0 min 0 min 0,0 UV-I 26 W/m 7,7 km/h (2 Bft)
18.04.2013 20:12 14,7 C 12,9 C 48 % 1017,3 hPa 0,0 l/m 2 min 0 min 0,0 UV-I 26 W/m 15,4 km/h (3 Bft)
18.04.2013 20:14 14,7 C 12,9 C 48 % 1017,4 hPa 0,0 l/m 2 min 0 min 0,0 UV-I 23 W/m 5,1 km/h (1 Bft)
18.04.2013 20:16 14,7 C 12,9 C 48 % 1017,5 hPa 0,0 l/m 2 min 0 min 0,0 UV-I 21 W/m 12,9 km/h (3 Bft)
18.04.2013 20:18 14,6 C 12,9 C 48 % 1017,5 hPa 0,0 l/m 0 min 0 min 0,0 UV-I 18 W/m 18,0 km/h (3 Bft)
18.04.2013 20:20 14,6 C 12,9 C 48 % 1017,5 hPa 0,0 l/m 0 min 0 min 0,0 UV-I 16 W/m 18,0 km/h (3 Bft)
18.04.2013 20:22 14,6 C 12,9 C 48 % 1017,5 hPa 0,0 l/m 0 min 0 min 0,0 UV-I 14 W/m 18,0 km/h (3 Bft)
18.04.2013 20:24 14,6 C 12,9 C 48 % 1017,6 hPa 0,0 l/m 0 min 0 min 0,0 UV-I 12 W/m 15,4 km/h (3 Bft)
18.04.2013 20:26 14,6 C 12,9 C 48 % 1017,6 hPa 0,0 l/m 0 min 0 min 0,0 UV-I 11 W/m 15,4 km/h (3 Bft)
18.04.2013 20:28 14,6 C 12,9 C 48 % 1017,6 hPa 0,0 l/m 0 min 0 min 0,0 UV-I 9 W/m 12,9 km/h (3 Bft)
18.04.2013 20:30 14,5 C 12,9 C 48 % 1017,6 hPa 0,0 l/m 0 min 0 min 0,0 UV-I 7 W/m 23,2 km/h (4 Bft)
18.04.2013 20:32 14,4 C 12,9 C 49 % 1017,7 hPa 0,0 l/m 0 min 0 min 0,0 UV-I 7 W/m 12,9 km/h (3 Bft)
18.04.2013 20:34 14,4 C 12,9 C 49 % 1017,6 hPa 0,0 l/m 0 min 0 min 0,0 UV-I 7 W/m 12,9 km/h (3 Bft)
18.04.2013 20:36 14,4 C 12,9 C 49 % 1017,6 hPa 0,0 l/m 0 min 0 min 0,0 UV-I 7 W/m 15,4 km/h (3 Bft)
18.04.2013 20:38 14,4 C 12,3 C 49 % 1017,7 hPa 0,0 l/m 0 min 0 min 0,0 UV-I 5 W/m 7,7 km/h (2 Bft)
18.04.2013 20:40 14,3 C 12,3 C 49 % 1017,7 hPa 0,0 l/m 0 min 0 min 0,0 UV-I 5 W/m 20,6 km/h (4 Bft)
18.04.2013 20:42 14,3 C 12,3 C 49 % 1017,6 hPa 0,0 l/m 0 min 0 min 0,0 UV-I 5 W/m 5,1 km/h (1 Bft)
18.04.2013 20:44 14,3 C 12,3 C 49 % 1017,7 hPa 0,0 l/m 0 min 0 min 0,0 UV-I 0 W/m 10,3 km/h (2 Bft)
18.04.2013 20:46 14,2 C 12,3 C 50 % 1017,7 hPa 0,0 l/m 0 min 0 min 0,0 UV-I 0 W/m 7,7 km/h (2 Bft)
18.04.2013 20:48 14,2 C 12,3 C 50 % 1017,7 hPa 0,0 l/m 0 min 0 min 0,0 UV-I 0 W/m 5,1 km/h (1 Bft)
18.04.2013 20:50 14,2 C 12,3 C 50 % 1017,7 hPa 0,0 l/m 0 min 0 min 0,0 UV-I 0 W/m 15,4 km/h (3 Bft)
18.04.2013 20:52 14,1 C 12,3 C 50 % 1017,7 hPa 0,0 l/m 0 min 0 min 0,0 UV-I 0 W/m 2,6 km/h (1 Bft)
18.04.2013 20:54 14,1 C 11,8 C 50 % 1017,8 hPa 0,0 l/m 0 min 0 min 0,0 UV-I 0 W/m 2,6 km/h (1 Bft)
18.04.2013 20:56 14,1 C 11,8 C 51 % 1017,8 hPa 0,0 l/m 0 min 0 min 0,0 UV-I 0 W/m 10,3 km/h (2 Bft)
18.04.2013 20:58 13,9 C 11,8 C 51 % 1017,8 hPa 0,0 l/m 0 min 0 min 0,0 UV-I 0 W/m 2,6 km/h (1 Bft)
18.04.2013 21:00 13,9 C 11,8 C 51 % 1017,9 hPa 0,0 l/m 0 min 0 min 0,0 UV-I 0 W/m 5,1 km/h (1 Bft)
18.04.2013 21:02 13,9 C 11,8 C 51 % 1017,9 hPa 0,0 l/m 0 min 0 min 0,0 UV-I 0 W/m 0,0 km/h (0 Bft)
18.04.2013 21:04 13,8 C 11,8 C 51 % 1017,9 hPa 0,0 l/m 0 min 0 min 0,0 UV-I 0 W/m 7,7 km/h (2 Bft)
18.04.2013 21:06 13,8 C 11,8 C 51 % 1017,8 hPa 0,0 l/m 0 min 0 min 0,0 UV-I 0 W/m 7,7 km/h (2 Bft)
18.04.2013 21:08 13,8 C 12,3 C 51 % 1017,9 hPa 0,0 l/m 0 min 0 min 0,0 UV-I 0 W/m 7,7 km/h (2 Bft)
18.04.2013 21:10 13,8 C 12,3 C 51 % 1017,9 hPa 0,0 l/m 0 min 0 min 0,0 UV-I 0 W/m 7,7 km/h (2 Bft)
18.04.2013 21:12 13,7 C 12,3 C 52 % 1018,0 hPa 0,0 l/m 0 min 0 min 0,0 UV-I 0 W/m 10,3 km/h (2 Bft)
18.04.2013 21:14 13,7 C 12,3 C 51 % 1018,0 hPa 0,0 l/m 0 min 0 min 0,0 UV-I 0 W/m 12,9 km/h (3 Bft)
18.04.2013 21:16 13,7 C 12,3 C 52 % 1018,0 hPa 0,0 l/m 0 min 0 min 0,0 UV-I 0 W/m 12,9 km/h (3 Bft)
18.04.2013 21:18 13,7 C 12,3 C 52 % 1018,0 hPa 0,0 l/m 0 min 0 min 0,0 UV-I 0 W/m 5,1 km/h (1 Bft)
18.04.2013 21:20 13,7 C 12,3 C 52 % 1018,0 hPa 0,0 l/m 0 min 0 min 0,0 UV-I 0 W/m 10,3 km/h (2 Bft)
18.04.2013 21:22 13,7 C 11,8 C 52 % 1018,0 hPa 0,0 l/m 0 min 0 min 0,0 UV-I 0 W/m 5,1 km/h (1 Bft)
18.04.2013 21:24 13,7 C 11,8 C 53 % 1018,0 hPa 0,0 l/m 0 min 0 min 0,0 UV-I 0 W/m 2,6 km/h (1 Bft)
18.04.2013 21:26 13,7 C 11,8 C 53 % 1018,0 hPa 0,0 l/m 0 min 0 min 0,0 UV-I 0 W/m 12,9 km/h (3 Bft)
18.04.2013 21:28 13,7 C 11,8 C 53 % 1018,1 hPa 0,0 l/m 0 min 0 min 0,0 UV-I 0 W/m 12,9 km/h (3 Bft)
18.04.2013 21:30 13,6 C 11,8 C 52 % 1018,1 hPa 0,0 l/m 0 min 0 min 0,0 UV-I 0 W/m 5,1 km/h (1 Bft)
18.04.2013 21:32 13,6 C 11,8 C 53 % 1018,1 hPa 0,0 l/m 0 min 0 min 0,0 UV-I 0 W/m 7,7 km/h (2 Bft)
18.04.2013 21:34 13,6 C 11,8 C 53 % 1018,1 hPa 0,0 l/m 0 min 0 min 0,0 UV-I 0 W/m 7,7 km/h (2 Bft)
18.04.2013 21:36 13,5 C 11,8 C 53 % 1018,2 hPa 0,0 l/m 0 min 0 min 0,0 UV-I 0 W/m 5,1 km/h (1 Bft)
18.04.2013 21:38 13,5 C 11,8 C 53 % 1018,2 hPa 0,0 l/m 0 min 0 min 0,0 UV-I 0 W/m 10,3 km/h (2 Bft)
18.04.2013 21:40 13,4 C 11,2 C 54 % 1018,3 hPa 0,0 l/m 0 min 0 min 0,0 UV-I 0 W/m 0,0 km/h (0 Bft)
18.04.2013 21:42 13,4 C 11,2 C 54 % 1018,4 hPa 0,0 l/m 0 min 0 min 0,0 UV-I 0 W/m 0,0 km/h (0 Bft)
18.04.2013 21:44 13,4 C 11,2 C 54 % 1018,3 hPa 0,0 l/m 0 min 0 min 0,0 UV-I 0 W/m 0,0 km/h (0 Bft)
18.04.2013 21:46 13,3 C 11,2 C 54 % 1018,3 hPa 0,0 l/m 0 min 0 min 0,0 UV-I 0 W/m 0,0 km/h (0 Bft)
18.04.2013 21:48 13,3 C 10,7 C 54 % 1018,4 hPa 0,0 l/m 0 min 0 min 0,0 UV-I 0 W/m 2,6 km/h (1 Bft)
18.04.2013 21:50 13,3 C 10,7 C 54 % 1018,4 hPa 0,0 l/m 0 min 0 min 0,0 UV-I 0 W/m 0,0 km/h (0 Bft)
18.04.2013 21:52 13,2 C 10,7 C 55 % 1018,4 hPa 0,0 l/m 0 min 0 min 0,0 UV-I 0 W/m 0,0 km/h (0 Bft)
18.04.2013 21:54 13,2 C 10,7 C 55 % 1018,3 hPa 0,0 l/m 0 min 0 min 0,0 UV-I 0 W/m 0,0 km/h (0 Bft)
18.04.2013 21:56 13,1 C 10,7 C 55 % 1018,4 hPa 0,0 l/m 0 min 0 min 0,0 UV-I 0 W/m 0,0 km/h (0 Bft)
18.04.2013 21:58 13,1 C 10,1 C 55 % 1018,5 hPa 0,0 l/m 0 min 0 min 0,0 UV-I 0 W/m 0,0 km/h (0 Bft)
18.04.2013 22:00 13,1 C 10,1 C 55 % 1018,5 hPa 0,0 l/m 0 min 0 min 0,0 UV-I 0 W/m 0,0 km/h (0 Bft)
18.04.2013 22:02 13,0 C 9,6 C 55 % 1018,3 hPa 0,0 l/m 0 min 0 min 0,0 UV-I 0 W/m 0,0 km/h (0 Bft)
18.04.2013 22:04 12,9 C 9,6 C 55 % 1018,4 hPa 0,0 l/m 0 min 0 min 0,0 UV-I 0 W/m 0,0 km/h (0 Bft)
18.04.2013 22:06 12,9 C 9,6 C 55 % 1018,6 hPa 0,0 l/m 0 min 0 min 0,0 UV-I 0 W/m 0,0 km/h (0 Bft)
18.04.2013 22:08 12,8 C 9,6 C 56 % 1018,6 hPa 0,0 l/m 0 min 0 min 0,0 UV-I 0 W/m 0,0 km/h (0 Bft)
18.04.2013 22:10 12,8 C 9,6 C 56 % 1018,6 hPa 0,0 l/m 0 min 0 min 0,0 UV-I 0 W/m 0,0 km/h (0 Bft)
18.04.2013 22:12 12,7 C 9,6 C 56 % 1018,6 hPa 0,0 l/m 0 min 0 min 0,0 UV-I 0 W/m 0,0 km/h (0 Bft)
18.04.2013 22:14 12,6 C 9,6 C 56 % 1018,6 hPa 0,0 l/m 0 min 0 min 0,0 UV-I 0 W/m 0,0 km/h (0 Bft)
18.04.2013 22:16 12,6 C 9,6 C 56 % 1018,6 hPa 0,0 l/m 0 min 0 min 0,0 UV-I 0 W/m 5,1 km/h (1 Bft)
18.04.2013 22:18 12,5 C 9,6 C 57 % 1018,6 hPa 0,0 l/m 0 min 0 min 0,0 UV-I 0 W/m 0,0 km/h (0 Bft)
18.04.2013 22:20 12,4 C 9,6 C 57 % 1018,6 hPa 0,0 l/m 0 min 0 min 0,0 UV-I 0 W/m 0,0 km/h (0 Bft)
18.04.2013 22:22 12,3 C 9,6 C 57 % 1018,6 hPa 0,0 l/m 0 min 0 min 0,0 UV-I 0 W/m 2,6 km/h (1 Bft)
18.04.2013 22:24 12,3 C 9,6 C 57 % 1018,5 hPa 0,0 l/m 0 min 0 min 0,0 UV-I 0 W/m 0,0 km/h (0 Bft)
18.04.2013 22:26 12,2 C 9,6 C 57 % 1018,6 hPa 0,0 l/m 0 min 0 min 0,0 UV-I 0 W/m 0,0 km/h (0 Bft)
18.04.2013 22:28 12,2 C 9,0 C 57 % 1018,5 hPa 0,0 l/m 0 min 0 min 0,0 UV-I 0 W/m 0,0 km/h (0 Bft)
18.04.2013 22:30 12,2 C 9,0 C 58 % 1018,6 hPa 0,0 l/m 0 min 0 min 0,0 UV-I 0 W/m 0,0 km/h (0 Bft)
18.04.2013 22:32 12,1 C 9,0 C 58 % 1018,5 hPa 0,0 l/m 0 min 0 min 0,0 UV-I 0 W/m 0,0 km/h (0 Bft)
18.04.2013 22:34 12,1 C 9,0 C 58 % 1018,5 hPa 0,0 l/m 0 min 0 min 0,0 UV-I 0 W/m 0,0 km/h (0 Bft)
18.04.2013 22:36 12,0 C 8,4 C 58 % 1018,6 hPa 0,0 l/m 0 min 0 min 0,0 UV-I 0 W/m 0,0 km/h (0 Bft)
18.04.2013 22:38 11,9 C 8,4 C 58 % 1018,5 hPa 0,0 l/m 0 min 0 min 0,0 UV-I 0 W/m 0,0 km/h (0 Bft)
18.04.2013 22:40 11,9 C 8,4 C 58 % 1018,5 hPa 0,0 l/m 0 min 0 min 0,0 UV-I 0 W/m 0,0 km/h (0 Bft)
18.04.2013 22:42 11,8 C 8,4 C 58 % 1018,5 hPa 0,0 l/m 0 min 0 min 0,0 UV-I 0 W/m 0,0 km/h (0 Bft)
18.04.2013 22:44 11,8 C 8,4 C 58 % 1018,5 hPa 0,0 l/m 0 min 0 min 0,0 UV-I 0 W/m 0,0 km/h (0 Bft)
18.04.2013 22:46 11,8 C 8,4 C 59 % 1018,5 hPa 0,0 l/m 0 min 0 min 0,0 UV-I 0 W/m 0,0 km/h (0 Bft)
18.04.2013 22:48 11,7 C 8,4 C 59 % 1018,5 hPa 0,0 l/m 0 min 0 min 0,0 UV-I 0 W/m 0,0 km/h (0 Bft)
18.04.2013 22:50 11,7 C 7,9 C 59 % 1018,5 hPa 0,0 l/m 0 min 0 min 0,0 UV-I 0 W/m 0,0 km/h (0 Bft)
18.04.2013 22:52 11,6 C 7,9 C 59 % 1018,5 hPa 0,0 l/m 0 min 0 min 0,0 UV-I 0 W/m 0,0 km/h (0 Bft)
18.04.2013 22:54 11,6 C 7,9 C 60 % 1018,3 hPa 0,0 l/m 0 min 0 min 0,0 UV-I 0 W/m 0,0 km/h (0 Bft)
18.04.2013 22:56 11,5 C 7,9 C 60 % 1018,4 hPa 0,0 l/m 0 min 0 min 0,0 UV-I 0 W/m 0,0 km/h (0 Bft)
18.04.2013 22:58 11,4 C 7,9 C 60 % 1018,4 hPa 0,0 l/m 0 min 0 min 0,0 UV-I 0 W/m 0,0 km/h (0 Bft)
18.04.2013 23:00 11,4 C 7,9 C 61 % 1018,4 hPa 0,0 l/m 0 min 0 min 0,0 UV-I 0 W/m 0,0 km/h (0 Bft)
18.04.2013 23:02 11,3 C 7,9 C 61 % 1018,3 hPa 0,0 l/m 0 min 0 min 0,0 UV-I 0 W/m 0,0 km/h (0 Bft)
18.04.2013 23:04 11,3 C 7,3 C 61 % 1018,3 hPa 0,0 l/m 0 min 0 min 0,0 UV-I 0 W/m 0,0 km/h (0 Bft)
18.04.2013 23:06 11,2 C 7,3 C 61 % 1018,3 hPa 0,0 l/m 0 min 0 min 0,0 UV-I 0 W/m 0,0 km/h (0 Bft)
18.04.2013 23:08 11,2 C 7,3 C 62 % 1018,3 hPa 0,0 l/m 0 min 0 min 0,0 UV-I 0 W/m 0,0 km/h (0 Bft)
18.04.2013 23:10 11,1 C 7,3 C 62 % 1018,2 hPa 0,0 l/m 0 min 0 min 0,0 UV-I 0 W/m 0,0 km/h (0 Bft)
18.04.2013 23:12 11,1 C 7,3 C 62 % 1018,1 hPa 0,0 l/m 0 min 0 min 0,0 UV-I 0 W/m 0,0 km/h (0 Bft)
18.04.2013 23:14 10,9 C 7,3 C 62 % 1018,1 hPa 0,0 l/m 0 min 0 min 0,0 UV-I 0 W/m 0,0 km/h (0 Bft)
18.04.2013 23:16 10,9 C 7,3 C 62 % 1018,0 hPa 0,0 l/m 0 min 0 min 0,0 UV-I 0 W/m 0,0 km/h (0 Bft)
18.04.2013 23:18 10,8 C 7,3 C 63 % 1018,1 hPa 0,0 l/m 0 min 0 min 0,0 UV-I 0 W/m 0,0 km/h (0 Bft)
18.04.2013 23:20 10,8 C 7,3 C 63 % 1018,1 hPa 0,0 l/m 0 min 0 min 0,0 UV-I 0 W/m 0,0 km/h (0 Bft)
18.04.2013 23:22 10,7 C 7,3 C 64 % 1018,1 hPa 0,0 l/m 0 min 0 min 0,0 UV-I 0 W/m 0,0 km/h (0 Bft)
18.04.2013 23:24 10,7 C 6,8 C 64 % 1018,0 hPa 0,0 l/m 0 min 0 min 0,0 UV-I 0 W/m 0,0 km/h (0 Bft)
18.04.2013 23:26 10,6 C 6,8 C 65 % 1018,0 hPa 0,0 l/m 0 min 0 min 0,0 UV-I 0 W/m 0,0 km/h (0 Bft)
18.04.2013 23:28 10,5 C 6,8 C 65 % 1018,0 hPa 0,0 l/m 0 min 0 min 0,0 UV-I 0 W/m 0,0 km/h (0 Bft)
18.04.2013 23:30 10,4 C 6,8 C 65 % 1018,0 hPa 0,0 l/m 0 min 0 min 0,0 UV-I 0 W/m 0,0 km/h (0 Bft)
18.04.2013 23:32 10,4 C 6,8 C 65 % 1018,0 hPa 0,0 l/m 0 min 0 min 0,0 UV-I 0 W/m 0,0 km/h (0 Bft)
18.04.2013 23:34 10,3 C 6,8 C 65 % 1018,0 hPa 0,0 l/m 0 min 0 min 0,0 UV-I 0 W/m 0,0 km/h (0 Bft)
18.04.2013 23:36 10,3 C 6,8 C 65 % 1018,0 hPa 0,0 l/m 0 min 0 min 0,0 UV-I 0 W/m 0,0 km/h (0 Bft)
18.04.2013 23:38 10,2 C 6,8 C 65 % 1017,9 hPa 0,0 l/m 0 min 0 min 0,0 UV-I 0 W/m 0,0 km/h (0 Bft)
18.04.2013 23:40 10,2 C 6,8 C 65 % 1018,0 hPa 0,0 l/m 0 min 0 min 0,0 UV-I 0 W/m 0,0 km/h (0 Bft)
18.04.2013 23:42 10,2 C 6,8 C 66 % 1017,9 hPa 0,0 l/m 0 min 0 min 0,0 UV-I 0 W/m 0,0 km/h (0 Bft)
18.04.2013 23:44 10,1 C 6,8 C 66 % 1018,0 hPa 0,0 l/m 0 min 0 min 0,0 UV-I 0 W/m 0,0 km/h (0 Bft)
18.04.2013 23:46 10,1 C 6,8 C 66 % 1018,0 hPa 0,0 l/m 0 min 0 min 0,0 UV-I 0 W/m 0,0 km/h (0 Bft)
18.04.2013 23:48 10,0 C 6,8 C 66 % 1017,9 hPa 0,0 l/m 0 min 0 min 0,0 UV-I 0 W/m 2,6 km/h (1 Bft)
18.04.2013 23:50 9,9 C 6,8 C 67 % 1018,0 hPa 0,0 l/m 0 min 0 min 0,0 UV-I 0 W/m 0,0 km/h (0 Bft)
18.04.2013 23:52 9,9 C 6,8 C 67 % 1018,0 hPa 0,0 l/m 0 min 0 min 0,0 UV-I 0 W/m 0,0 km/h (0 Bft)
18.04.2013 23:54 9,8 C 6,8 C 67 % 1018,0 hPa 0,0 l/m 0 min 0 min 0,0 UV-I 0 W/m 0,0 km/h (0 Bft)
18.04.2013 23:56 9,8 C 6,8 C 67 % 1017,9 hPa 0,0 l/m 0 min 0 min 0,0 UV-I 0 W/m 0,0 km/h (0 Bft)
18.04.2013 23:58 9,8 C 6,8 C 67 % 1017,9 hPa 0,0 l/m 0 min 0 min 0,0 UV-I 0 W/m 0,0 km/h (0 Bft)
_ Min-Zeit 23:54 23:24 16:48 03:50 - - - - - 04:30
Minimum _ 9,8 C 6,8 C 42 % 1010,3 hPa - - - - - 0,0 km/h (0 Bft)
_ Max-Zeit 00:00 12:48 05:54 22:06 00:00 09:20 00:00 13:24 14:24 12:10
Maximum _ 18,7 C 21,8 C 80 % 1018,6 hPa 0,0 l/m 2 min 0 min 4,1 UV-I 861 W/m 54,1 km/h
N (7 Bft)
Durchschnitt _ 15,6 C 14,7 C 58 % 1015,0 hPa #0,0 l/m #8:16 h #0 min. 2,4 UV-I 369 W/m 16,3 km/h (3 Bft)
© 2013 W. Hausmann